Wetterdaten: Freitag, 15.03.2019
Datum Zeit Temp. Aussen Temp. o. S. +5cm Feuchte Auss Luftdruck Regen Sonnenschein Regendauer Solar Windben Empfang
15.03.2019 00:00 7,1 C 6,7 C 5,6 C 88 % 1003,8 hPa 0,0 l/m 0 min 0 min 0 W/m 3,2 km/h (1 Bft) 95,74 %
15.03.2019 00:02 7,1 C 6,7 C 5,6 C 88 % 1003,8 hPa 0,0 l/m 0 min 0 min 0 W/m 0,0 km/h (0 Bft) 97,37 %
15.03.2019 00:04 7,1 C 6,7 C 5,6 C 88 % 1003,9 hPa 0,0 l/m 0 min 0 min 0 W/m 0,0 km/h (0 Bft) 95,74 %
15.03.2019 00:08 7,1 C 6,7 C 5,6 C 88 % 1004,0 hPa 0,0 l/m 0 min 0 min 0 W/m 3,2 km/h (1 Bft) 95,79 %
15.03.2019 00:10 7,0 C 6,7 C 5,6 C 88 % 1003,9 hPa 0,0 l/m 0 min 0 min 0 W/m 3,2 km/h (1 Bft) 95,74 %
15.03.2019 00:12 7,0 C 6,7 C 5,6 C 88 % 1004,0 hPa 0,0 l/m 0 min 0 min 0 W/m 0,0 km/h (0 Bft) 95,74 %
15.03.2019 00:14 7,0 C 6,7 C 5,6 C 88 % 1003,9 hPa 0,0 l/m 0 min 0 min 0 W/m 0,0 km/h (0 Bft) 95,65 %
15.03.2019 00:16 7,0 C 6,7 C 5,6 C 88 % 1004,0 hPa 0,0 l/m 0 min 0 min 0 W/m 3,2 km/h (1 Bft) 95,74 %
15.03.2019 00:18 7,0 C 6,7 C 5,6 C 88 % 1004,0 hPa 0,0 l/m 0 min 0 min 0 W/m 3,2 km/h (1 Bft) 95,74 %
15.03.2019 00:20 7,0 C 6,1 C 5,6 C 87 % 1004,0 hPa 0,0 l/m 0 min 0 min 0 W/m 6,4 km/h (2 Bft) 91,49 %
15.03.2019 00:22 7,0 C 6,7 C 5,6 C 87 % 1004,0 hPa 0,0 l/m 0 min 0 min 0 W/m 9,7 km/h (2 Bft) 95,74 %
15.03.2019 00:24 6,9 C 6,1 C 5,6 C 87 % 1004,2 hPa 0,0 l/m 0 min 0 min 0 W/m 0,0 km/h (0 Bft) 95,74 %
15.03.2019 00:26 6,9 C 6,1 C 5,6 C 87 % 1004,2 hPa 0,0 l/m 0 min 0 min 0 W/m 0,0 km/h (0 Bft) 95,65 %
15.03.2019 00:28 6,9 C 6,1 C 5,6 C 87 % 1004,2 hPa 0,0 l/m 0 min 0 min 0 W/m 3,2 km/h (1 Bft) 97,87 %
15.03.2019 00:30 6,9 C 6,1 C 5,6 C 87 % 1004,2 hPa 0,0 l/m 0 min 0 min 0 W/m 0,0 km/h (0 Bft) 97,87 %
15.03.2019 00:32 6,9 C 6,1 C 5,6 C 87 % 1004,3 hPa 0,0 l/m 0 min 0 min 0 W/m 0,0 km/h (0 Bft) 97,87 %
15.03.2019 00:34 6,9 C 6,1 C 5,6 C 87 % 1004,2 hPa 0,0 l/m 0 min 0 min 0 W/m 3,2 km/h (1 Bft) 95,74 %
15.03.2019 00:36 6,8 C 6,1 C 5,0 C 87 % 1004,2 hPa 0,0 l/m 0 min 0 min 0 W/m 0,0 km/h (0 Bft) 97,87 %
15.03.2019 00:38 6,8 C 6,1 C 5,0 C 87 % 1004,2 hPa 0,0 l/m 0 min 0 min 0 W/m 0,0 km/h (0 Bft) 95,74 %
15.03.2019 00:40 6,8 C 6,1 C 5,0 C 87 % 1004,2 hPa 0,0 l/m 0 min 0 min 0 W/m 0,0 km/h (0 Bft) 97,83 %
15.03.2019 00:42 6,8 C 6,1 C 5,0 C 87 % 1004,3 hPa 0,0 l/m 0 min 0 min 0 W/m 0,0 km/h (0 Bft) 97,87 %
15.03.2019 00:44 6,8 C 6,1 C 5,0 C 87 % 1004,3 hPa 0,0 l/m 0 min 0 min 0 W/m 0,0 km/h (0 Bft) 95,74 %
15.03.2019 00:46 6,7 C 6,1 C 5,0 C 87 % 1004,4 hPa 0,0 l/m 0 min 0 min 0 W/m 0,0 km/h (0 Bft) 97,87 %
15.03.2019 00:48 6,7 C 6,1 C 5,0 C 87 % 1004,4 hPa 0,0 l/m 0 min 0 min 0 W/m 0,0 km/h (0 Bft) 95,74 %
15.03.2019 00:50 6,7 C 6,1 C 5,6 C 87 % 1004,4 hPa 0,0 l/m 0 min 0 min 0 W/m 0,0 km/h (0 Bft) 95,74 %
15.03.2019 00:52 6,7 C 6,1 C 5,6 C 87 % 1004,4 hPa 0,0 l/m 0 min 0 min 0 W/m 0,0 km/h (0 Bft) 100,00 %
15.03.2019 00:54 6,7 C 6,1 C 5,6 C 87 % 1004,4 hPa 0,0 l/m 0 min 0 min 0 W/m 0,0 km/h (0 Bft) 100,00 %
15.03.2019 00:56 6,7 C 6,1 C 5,6 C 87 % 1004,3 hPa 0,0 l/m 0 min 0 min 0 W/m 9,7 km/h (2 Bft) 97,87 %
15.03.2019 00:58 6,7 C 6,1 C 5,6 C 87 % 1004,4 hPa 0,0 l/m 0 min 0 min 0 W/m 6,4 km/h (2 Bft) 100,00 %
15.03.2019 01:00 6,7 C 6,1 C 5,6 C 87 % 1004,4 hPa 0,0 l/m 0 min 0 min 0 W/m 3,2 km/h (1 Bft) 100,00 %
15.03.2019 01:02 6,7 C 6,7 C 5,6 C 87 % 1004,4 hPa 0,0 l/m 0 min 0 min 0 W/m 9,7 km/h (2 Bft) 97,87 %
15.03.2019 01:04 6,7 C 6,1 C 5,6 C 87 % 1004,4 hPa 0,0 l/m 0 min 0 min 0 W/m 3,2 km/h (1 Bft) 97,83 %
15.03.2019 01:06 6,7 C 6,7 C 5,6 C 87 % 1004,5 hPa 0,0 l/m 0 min 0 min 0 W/m 3,2 km/h (1 Bft) 97,87 %
15.03.2019 01:08 6,7 C 6,7 C 5,6 C 87 % 1004,5 hPa 0,0 l/m 0 min 0 min 0 W/m 0,0 km/h (0 Bft) 97,87 %
15.03.2019 01:10 6,7 C 6,1 C 5,6 C 87 % 1004,5 hPa 0,0 l/m 0 min 0 min 0 W/m 0,0 km/h (0 Bft) 97,87 %
15.03.2019 01:12 6,7 C 6,7 C 5,6 C 87 % 1004,6 hPa 0,0 l/m 0 min 0 min 0 W/m 3,2 km/h (1 Bft) 95,74 %
15.03.2019 01:14 6,8 C 6,7 C 5,6 C 87 % 1004,6 hPa 0,0 l/m 0 min 0 min 0 W/m 0,0 km/h (0 Bft) 95,74 %
15.03.2019 01:16 6,8 C 6,7 C 5,6 C 87 % 1004,7 hPa 0,0 l/m 0 min 0 min 0 W/m 6,4 km/h (2 Bft) 95,65 %
15.03.2019 01:18 6,8 C 6,7 C 5,6 C 87 % 1004,5 hPa 0,0 l/m 0 min 0 min 0 W/m 0,0 km/h (0 Bft) 97,87 %
15.03.2019 01:20 6,8 C 6,1 C 5,6 C 87 % 1004,6 hPa 0,0 l/m 0 min 0 min 0 W/m 12,9 km/h (3 Bft) 97,87 %
15.03.2019 01:22 6,8 C 6,7 C 5,6 C 87 % 1004,6 hPa 0,0 l/m 0 min 0 min 0 W/m 3,2 km/h (1 Bft) 97,87 %
15.03.2019 01:24 6,8 C 6,7 C 5,6 C 87 % 1004,6 hPa 0,0 l/m 0 min 0 min 0 W/m 12,9 km/h (3 Bft) 97,87 %
15.03.2019 01:26 6,8 C 6,7 C 5,6 C 87 % 1004,5 hPa 0,0 l/m 0 min 0 min 0 W/m 16,1 km/h (3 Bft) 97,87 %
15.03.2019 01:28 6,8 C 6,7 C 5,6 C 87 % 1004,5 hPa 0,0 l/m 0 min 0 min 0 W/m 9,7 km/h (2 Bft) 97,83 %
15.03.2019 01:30 6,8 C 6,7 C 5,6 C 87 % 1004,5 hPa 0,0 l/m 0 min 0 min 0 W/m 12,9 km/h (3 Bft) 97,87 %
15.03.2019 01:32 6,9 C 6,7 C 5,6 C 87 % 1004,6 hPa 0,0 l/m 0 min 0 min 0 W/m 3,2 km/h (1 Bft) 95,74 %
15.03.2019 01:34 6,9 C 6,7 C 5,6 C 87 % 1004,6 hPa 0,0 l/m 0 min 0 min 0 W/m 9,7 km/h (2 Bft) 97,87 %
15.03.2019 01:36 6,9 C 6,7 C 5,6 C 87 % 1004,7 hPa 0,0 l/m 0 min 0 min 0 W/m 6,4 km/h (2 Bft) 95,74 %
15.03.2019 01:38 6,9 C 6,7 C 5,6 C 87 % 1004,8 hPa 0,0 l/m 0 min 0 min 0 W/m 3,2 km/h (1 Bft) 97,83 %
15.03.2019 01:40 6,9 C 6,7 C 5,6 C 87 % 1004,8 hPa 0,0 l/m 0 min 0 min 0 W/m 12,9 km/h (3 Bft) 97,87 %
15.03.2019 01:42 6,9 C 6,7 C 5,6 C 87 % 1004,7 hPa 0,0 l/m 0 min 0 min 0 W/m 3,2 km/h (1 Bft) 97,87 %
15.03.2019 01:44 6,9 C 6,7 C 5,6 C 87 % 1004,8 hPa 0,0 l/m 0 min 0 min 0 W/m 9,7 km/h (2 Bft) 97,87 %
15.03.2019 01:46 6,9 C 6,7 C 5,6 C 87 % 1004,9 hPa 0,0 l/m 0 min 0 min 0 W/m 6,4 km/h (2 Bft) 97,87 %
15.03.2019 01:48 6,9 C 6,7 C 5,6 C 87 % 1004,9 hPa 0,0 l/m 0 min 0 min 0 W/m 16,1 km/h (3 Bft) 100,00 %
15.03.2019 01:50 6,9 C 6,7 C 5,6 C 87 % 1004,9 hPa 0,0 l/m 0 min 0 min 0 W/m 22,5 km/h (4 Bft) 97,83 %
15.03.2019 01:52 6,9 C 6,7 C 5,6 C 87 % 1004,8 hPa 0,0 l/m 0 min 0 min 0 W/m 9,7 km/h (2 Bft) 97,87 %
15.03.2019 01:54 6,9 C 6,7 C 5,6 C 87 % 1004,8 hPa 0,0 l/m 0 min 0 min 0 W/m 16,1 km/h (3 Bft) 97,87 %
15.03.2019 01:56 6,9 C 6,7 C 5,6 C 87 % 1004,9 hPa 0,0 l/m 0 min 0 min 0 W/m 9,7 km/h (2 Bft) 100,00 %
15.03.2019 01:58 6,9 C 6,7 C 5,6 C 87 % 1004,9 hPa 0,0 l/m 0 min 0 min 0 W/m 9,7 km/h (2 Bft) 97,87 %
15.03.2019 02:00 6,9 C 6,7 C 5,6 C 87 % 1004,8 hPa 0,0 l/m 0 min 0 min 0 W/m 9,7 km/h (2 Bft) 97,87 %
15.03.2019 02:02 6,9 C 6,7 C 5,6 C 87 % 1004,8 hPa 0,0 l/m 0 min 0 min 0 W/m 12,9 km/h (3 Bft) 97,83 %
15.03.2019 02:04 6,9 C 6,7 C 5,6 C 87 % 1004,8 hPa 0,0 l/m 0 min 0 min 0 W/m 9,7 km/h (2 Bft) 100,00 %
15.03.2019 02:06 6,9 C 6,7 C 5,6 C 87 % 1004,8 hPa 0,0 l/m 0 min 0 min 0 W/m 9,7 km/h (2 Bft) 97,87 %
15.03.2019 02:08 6,9 C 6,7 C 5,6 C 87 % 1004,8 hPa 0,0 l/m 0 min 0 min 0 W/m 16,1 km/h (3 Bft) 97,87 %
15.03.2019 02:10 6,9 C 6,7 C 5,6 C 87 % 1004,8 hPa 0,0 l/m 0 min 0 min 0 W/m 12,9 km/h (3 Bft) 100,00 %
15.03.2019 02:12 6,9 C 6,7 C 5,6 C 87 % 1004,8 hPa 0,0 l/m 0 min 0 min 0 W/m 9,7 km/h (2 Bft) 100,00 %
15.03.2019 02:14 6,9 C 6,7 C 5,6 C 87 % 1004,8 hPa 0,0 l/m 0 min 0 min 0 W/m 12,9 km/h (3 Bft) 100,00 %
15.03.2019 02:16 6,9 C 6,7 C 5,6 C 87 % 1004,8 hPa 0,0 l/m 0 min 0 min 0 W/m 16,1 km/h (3 Bft) 100,00 %
15.03.2019 02:18 6,9 C 6,7 C 5,6 C 87 % 1004,7 hPa 0,0 l/m 0 min 0 min 0 W/m 9,7 km/h (2 Bft) 100,00 %
15.03.2019 02:20 6,9 C 6,7 C 5,6 C 87 % 1004,8 hPa 0,0 l/m 0 min 0 min 0 W/m 12,9 km/h (3 Bft) 97,87 %
15.03.2019 02:22 7,0 C 6,7 C 5,6 C 87 % 1004,7 hPa 0,0 l/m 0 min 0 min 0 W/m 12,9 km/h (3 Bft) 97,87 %
15.03.2019 02:24 7,0 C 6,7 C 5,6 C 87 % 1004,7 hPa 0,0 l/m 0 min 0 min 0 W/m 9,7 km/h (2 Bft) 100,00 %
15.03.2019 02:26 6,9 C 6,7 C 5,6 C 87 % 1004,8 hPa 0,0 l/m 0 min 0 min 0 W/m 12,9 km/h (3 Bft) 97,83 %
15.03.2019 02:28 7,0 C 6,7 C 5,6 C 87 % 1004,7 hPa 0,0 l/m 0 min 0 min 0 W/m 9,7 km/h (2 Bft) 97,87 %
15.03.2019 02:30 6,9 C 6,7 C 5,6 C 87 % 1004,7 hPa 0,0 l/m 0 min 0 min 0 W/m 19,3 km/h (3 Bft) 100,00 %
15.03.2019 02:32 7,0 C 6,7 C 5,6 C 87 % 1004,7 hPa 0,0 l/m 0 min 0 min 0 W/m 12,9 km/h (3 Bft) 100,00 %
15.03.2019 02:34 6,9 C 6,1 C 5,6 C 87 % 1004,7 hPa 0,0 l/m 0 min 0 min 0 W/m 12,9 km/h (3 Bft) 93,62 %
15.03.2019 02:36 6,9 C 6,1 C 5,6 C 87 % 1004,7 hPa 0,0 l/m 0 min 0 min 0 W/m 22,5 km/h (4 Bft) 97,87 %
15.03.2019 02:38 6,9 C 6,1 C 5,6 C 87 % 1004,7 hPa 0,0 l/m 0 min 0 min 0 W/m 22,5 km/h (4 Bft) 100,00 %
15.03.2019 02:40 6,9 C 6,1 C 5,6 C 87 % 1004,7 hPa 0,0 l/m 0 min 0 min 0 W/m 12,9 km/h (3 Bft) 97,87 %
15.03.2019 02:42 6,9 C 6,1 C 5,6 C 87 % 1004,7 hPa 0,0 l/m 0 min 0 min 0 W/m 19,3 km/h (3 Bft) 95,74 %
15.03.2019 02:44 6,9 C 6,1 C 5,6 C 87 % 1004,6 hPa 0,0 l/m 0 min 0 min 0 W/m 16,1 km/h (3 Bft) 97,87 %
15.03.2019 02:46 6,9 C 6,1 C 5,6 C 87 % 1004,6 hPa 0,0 l/m 0 min 0 min 0 W/m 9,7 km/h (2 Bft) 97,87 %
15.03.2019 02:48 6,9 C 6,1 C 5,6 C 87 % 1004,5 hPa 0,0 l/m 0 min 0 min 0 W/m 16,1 km/h (3 Bft) 97,83 %
15.03.2019 02:50 6,9 C 6,1 C 5,6 C 87 % 1004,5 hPa 0,0 l/m 0 min 0 min 0 W/m 9,7 km/h (2 Bft) 95,74 %
15.03.2019 02:52 6,9 C 6,1 C 5,6 C 87 % 1004,5 hPa 0,0 l/m 0 min 0 min 0 W/m 9,7 km/h (2 Bft) 95,74 %
15.03.2019 02:54 6,9 C 6,1 C 5,6 C 87 % 1004,4 hPa 0,0 l/m 0 min 0 min 0 W/m 16,1 km/h (3 Bft) 95,74 %
15.03.2019 02:56 6,9 C 6,1 C 5,6 C 87 % 1004,5 hPa 0,0 l/m 0 min 0 min 0 W/m 12,9 km/h (3 Bft) 93,62 %
15.03.2019 02:58 6,9 C 6,1 C 5,6 C 87 % 1004,4 hPa 0,0 l/m 0 min 0 min 0 W/m 19,3 km/h (3 Bft) 95,74 %
15.03.2019 03:00 6,9 C 6,1 C 5,6 C 87 % 1004,4 hPa 0,0 l/m 0 min 0 min 0 W/m 9,7 km/h (2 Bft) 95,65 %
15.03.2019 03:02 6,9 C 6,1 C 5,6 C 87 % 1004,4 hPa 0,0 l/m 0 min 0 min 0 W/m 6,4 km/h (2 Bft) 93,62 %
15.03.2019 03:04 6,8 C 6,1 C 5,6 C 87 % 1004,3 hPa 0,0 l/m 0 min 0 min 0 W/m 16,1 km/h (3 Bft) 95,74 %
15.03.2019 03:06 6,8 C 6,1 C 5,6 C 87 % 1004,3 hPa 0,0 l/m 0 min 0 min 0 W/m 16,1 km/h (3 Bft) 93,62 %
15.03.2019 03:08 6,8 C 6,1 C 5,6 C 87 % 1004,4 hPa 0,0 l/m 0 min 0 min 0 W/m 9,7 km/h (2 Bft) 95,74 %
15.03.2019 03:10 6,8 C 6,1 C 5,6 C 87 % 1004,4 hPa 0,0 l/m 0 min 0 min 0 W/m 9,7 km/h (2 Bft) 95,74 %
15.03.2019 03:12 6,8 C 6,1 C 5,6 C 87 % 1004,3 hPa 0,0 l/m 0 min 0 min 0 W/m 12,9 km/h (3 Bft) 95,65 %
15.03.2019 03:14 6,8 C 6,1 C 5,6 C 87 % 1004,3 hPa 0,0 l/m 0 min 0 min 0 W/m 25,7 km/h (4 Bft) 95,74 %
15.03.2019 03:16 6,8 C 6,1 C 5,6 C 87 % 1004,3 hPa 0,0 l/m 0 min 0 min 0 W/m 12,9 km/h (3 Bft) 95,74 %
15.03.2019 03:18 6,8 C 6,1 C 5,6 C 87 % 1004,3 hPa 0,0 l/m 0 min 0 min 0 W/m 9,7 km/h (2 Bft) 93,62 %
15.03.2019 03:20 6,8 C 6,1 C 5,6 C 87 % 1004,3 hPa 0,0 l/m 0 min 0 min 0 W/m 9,7 km/h (2 Bft) 95,74 %
15.03.2019 03:22 6,8 C 6,1 C 5,6 C 87 % 1004,2 hPa 0,0 l/m 0 min 0 min 0 W/m 12,9 km/h (3 Bft) 95,74 %
15.03.2019 03:24 6,8 C 6,1 C 5,6 C 87 % 1004,3 hPa 0,0 l/m 0 min 0 min 0 W/m 16,1 km/h (3 Bft) 95,65 %
15.03.2019 03:26 6,8 C 6,1 C 5,6 C 87 % 1004,2 hPa 0,0 l/m 0 min 0 min 0 W/m 9,7 km/h (2 Bft) 95,74 %
15.03.2019 03:28 6,8 C 6,1 C 5,6 C 87 % 1004,2 hPa 0,0 l/m 0 min 0 min 0 W/m 16,1 km/h (3 Bft) 95,74 %
15.03.2019 03:30 6,8 C 6,1 C 5,6 C 87 % 1004,2 hPa 0,0 l/m 0 min 0 min 0 W/m 12,9 km/h (3 Bft) 93,62 %
15.03.2019 03:32 6,8 C 6,1 C 5,6 C 87 % 1004,1 hPa 0,0 l/m 0 min 0 min 0 W/m 9,7 km/h (2 Bft) 95,74 %
15.03.2019 03:34 6,8 C 6,1 C 5,6 C 87 % 1004,1 hPa 0,0 l/m 0 min 0 min 0 W/m 16,1 km/h (3 Bft) 93,62 %
15.03.2019 03:36 6,8 C 6,1 C 5,6 C 87 % 1004,1 hPa 0,0 l/m 0 min 0 min 0 W/m 9,7 km/h (2 Bft) 93,48 %
15.03.2019 03:38 6,8 C 6,1 C 5,6 C 87 % 1004,1 hPa 0,0 l/m 0 min 0 min 0 W/m 0,0 km/h (0 Bft) 93,62 %
15.03.2019 03:40 6,8 C 6,1 C 5,6 C 87 % 1004,0 hPa 0,0 l/m 0 min 0 min 0 W/m 9,7 km/h (2 Bft) 95,74 %
15.03.2019 03:42 6,7 C 6,1 C 5,6 C 87 % 1004,0 hPa 0,0 l/m 0 min 0 min 0 W/m 6,4 km/h (2 Bft) 95,74 %
15.03.2019 03:44 6,8 C 6,1 C 5,6 C 87 % 1004,0 hPa 0,0 l/m 0 min 0 min 0 W/m 12,9 km/h (3 Bft) 97,87 %
15.03.2019 03:46 6,8 C 6,1 C 5,6 C 87 % 1004,0 hPa 0,0 l/m 0 min 0 min 0 W/m 12,9 km/h (3 Bft) 97,87 %
15.03.2019 03:48 6,8 C 6,1 C 5,6 C 87 % 1004,0 hPa 0,0 l/m 0 min 0 min 0 W/m 9,7 km/h (2 Bft) 93,48 %
15.03.2019 03:50 6,8 C 6,1 C 5,6 C 87 % 1003,9 hPa 0,0 l/m 0 min 0 min 0 W/m 9,7 km/h (2 Bft) 97,87 %
15.03.2019 03:52 6,8 C 6,1 C 5,6 C 87 % 1003,9 hPa 0,0 l/m 0 min 0 min 0 W/m 12,9 km/h (3 Bft) 95,74 %
15.03.2019 03:54 6,8 C 6,1 C 5,6 C 87 % 1003,9 hPa 0,0 l/m 0 min 0 min 0 W/m 6,4 km/h (2 Bft) 97,87 %
15.03.2019 03:56 6,8 C 6,1 C 5,6 C 87 % 1003,9 hPa 0,0 l/m 0 min 0 min 0 W/m 6,4 km/h (2 Bft) 97,87 %
15.03.2019 03:58 6,8 C 6,1 C 5,6 C 87 % 1003,9 hPa 0,0 l/m 0 min 0 min 0 W/m 16,1 km/h (3 Bft) 95,65 %
15.03.2019 04:00 6,8 C 6,1 C 5,6 C 87 % 1003,9 hPa 0,0 l/m 0 min 0 min 0 W/m 12,9 km/h (3 Bft) 97,87 %
15.03.2019 04:02 6,8 C 6,1 C 5,6 C 87 % 1004,1 hPa 0,0 l/m 0 min 0 min 0 W/m 12,9 km/h (3 Bft) 97,14 %
15.03.2019 04:04 6,8 C 6,1 C 5,6 C 87 % 1003,9 hPa 0,0 l/m 0 min 0 min 0 W/m 12,9 km/h (3 Bft) 95,74 %
15.03.2019 04:06 6,8 C 6,1 C 5,6 C 87 % 1003,9 hPa 0,0 l/m 0 min 0 min 0 W/m 22,5 km/h (4 Bft) 95,74 %
15.03.2019 04:08 6,8 C 6,1 C 5,6 C 87 % 1003,9 hPa 0,0 l/m 0 min 0 min 0 W/m 12,9 km/h (3 Bft) 95,74 %
15.03.2019 04:10 6,8 C 6,1 C 5,6 C 87 % 1003,9 hPa 0,0 l/m 0 min 0 min 0 W/m 9,7 km/h (2 Bft) 97,83 %
15.03.2019 04:12 6,8 C 6,1 C 5,6 C 87 % 1003,8 hPa 0,0 l/m 0 min 0 min 0 W/m 9,7 km/h (2 Bft) 97,87 %
15.03.2019 04:14 6,8 C 6,1 C 5,6 C 87 % 1004,0 hPa 0,0 l/m 0 min 0 min 0 W/m 19,3 km/h (3 Bft) 97,87 %
15.03.2019 04:16 6,8 C 6,1 C 5,6 C 87 % 1003,9 hPa 0,0 l/m 0 min 0 min 0 W/m 9,7 km/h (2 Bft) 97,87 %
15.03.2019 04:18 6,8 C 6,1 C 5,6 C 87 % 1004,0 hPa 0,0 l/m 0 min 0 min 0 W/m 9,7 km/h (2 Bft) 100,00 %
15.03.2019 04:20 6,8 C 6,1 C 5,6 C 87 % 1003,9 hPa 0,0 l/m 0 min 0 min 0 W/m 9,7 km/h (2 Bft) 100,00 %
15.03.2019 04:22 6,8 C 6,1 C 5,6 C 87 % 1003,8 hPa 0,0 l/m 0 min 0 min 0 W/m 9,7 km/h (2 Bft) 97,83 %
15.03.2019 04:24 6,8 C 6,1 C 5,6 C 87 % 1003,9 hPa 0,0 l/m 0 min 0 min 0 W/m 19,3 km/h (3 Bft) 100,00 %
15.03.2019 04:26 6,8 C 6,1 C 5,6 C 87 % 1003,7 hPa 0,0 l/m 0 min 0 min 0 W/m 9,7 km/h (2 Bft) 97,87 %
15.03.2019 04:28 6,8 C 6,1 C 5,6 C 87 % 1003,8 hPa 0,0 l/m 0 min 0 min 0 W/m 12,9 km/h (3 Bft) 100,00 %
15.03.2019 04:30 6,8 C 6,1 C 5,6 C 87 % 1003,7 hPa 0,0 l/m 0 min 0 min 0 W/m 6,4 km/h (2 Bft) 95,74 %
15.03.2019 04:32 6,8 C 6,1 C 5,6 C 87 % 1003,7 hPa 0,0 l/m 0 min 0 min 0 W/m 9,7 km/h (2 Bft) 100,00 %
15.03.2019 04:34 6,8 C 6,1 C 5,6 C 87 % 1003,7 hPa 0,0 l/m 0 min 0 min 0 W/m 6,4 km/h (2 Bft) 100,00 %
15.03.2019 04:36 6,8 C 6,1 C 5,6 C 87 % 1003,6 hPa 0,0 l/m 0 min 0 min 0 W/m 9,7 km/h (2 Bft) 100,00 %
15.03.2019 04:38 6,8 C 6,1 C 5,6 C 87 % 1003,6 hPa 0,0 l/m 0 min 0 min 0 W/m 9,7 km/h (2 Bft) 100,00 %
15.03.2019 04:40 6,8 C 6,1 C 5,6 C 87 % 1003,6 hPa 0,0 l/m 0 min 0 min 0 W/m 6,4 km/h (2 Bft) 100,00 %
15.03.2019 04:42 6,8 C 6,1 C 5,6 C 87 % 1003,6 hPa 0,0 l/m 0 min 0 min 0 W/m 6,4 km/h (2 Bft) 100,00 %
15.03.2019 04:44 6,8 C 6,1 C 5,6 C 87 % 1003,7 hPa 0,0 l/m 0 min 0 min 0 W/m 19,3 km/h (3 Bft) 97,87 %
15.03.2019 04:46 6,8 C 6,1 C 5,6 C 87 % 1003,6 hPa 0,0 l/m 0 min 0 min 0 W/m 9,7 km/h (2 Bft) 100,00 %
15.03.2019 04:48 6,8 C 6,1 C 5,6 C 87 % 1003,6 hPa 0,0 l/m 0 min 0 min 0 W/m 9,7 km/h (2 Bft) 100,00 %
15.03.2019 04:50 6,8 C 6,1 C 5,6 C 87 % 1003,5 hPa 0,0 l/m 0 min 0 min 0 W/m 9,7 km/h (2 Bft) 100,00 %
15.03.2019 04:52 6,8 C 6,1 C 5,6 C 87 % 1003,5 hPa 0,0 l/m 0 min 0 min 0 W/m 6,4 km/h (2 Bft) 100,00 %
15.03.2019 04:54 6,8 C 6,1 C 5,6 C 87 % 1003,5 hPa 0,0 l/m 0 min 0 min 0 W/m 9,7 km/h (2 Bft) 100,00 %
15.03.2019 04:56 6,8 C 6,1 C 5,6 C 87 % 1003,5 hPa 0,0 l/m 0 min 0 min 0 W/m 9,7 km/h (2 Bft) 100,00 %
15.03.2019 04:58 6,7 C 6,1 C 5,6 C 87 % 1003,5 hPa 0,0 l/m 0 min 0 min 0 W/m 12,9 km/h (3 Bft) 100,00 %
15.03.2019 05:00 6,8 C 6,1 C 5,6 C 87 % 1003,4 hPa 0,0 l/m 0 min 0 min 0 W/m 9,7 km/h (2 Bft) 100,00 %
15.03.2019 05:02 6,8 C 6,1 C 5,6 C 87 % 1003,4 hPa 0,0 l/m 0 min 0 min 0 W/m 9,7 km/h (2 Bft) 97,87 %
15.03.2019 05:04 6,8 C 6,1 C 5,6 C 87 % 1003,4 hPa 0,0 l/m 0 min 0 min 0 W/m 9,7 km/h (2 Bft) 100,00 %
15.03.2019 05:05 6,7 C 6,1 C 5,6 C 87 % 1003,4 hPa 0,0 l/m 0 min 0 min 0 W/m 9,7 km/h (2 Bft) 100,00 %
15.03.2019 05:10 6,8 C 6,1 C 5,6 C 87 % 1003,4 hPa 0,0 l/m 0 min 0 min 0 W/m 16,1 km/h (3 Bft) 100,00 %
15.03.2019 05:12 6,8 C 6,7 C 5,6 C 87 % 1003,5 hPa 0,0 l/m 0 min 0 min 0 W/m 6,4 km/h (2 Bft) 91,67 %
15.03.2019 05:14 6,8 C 6,7 C 5,6 C 87 % 1003,5 hPa 0,0 l/m 0 min 0 min 0 W/m 9,7 km/h (2 Bft) 97,87 %
15.03.2019 05:16 6,8 C 6,7 C 5,6 C 87 % 1003,4 hPa 0,0 l/m 0 min 0 min 0 W/m 12,9 km/h (3 Bft) 100,00 %
15.03.2019 05:18 6,8 C 6,7 C 5,6 C 87 % 1003,4 hPa 0,0 l/m 0 min 0 min 0 W/m 16,1 km/h (3 Bft) 100,00 %
15.03.2019 05:20 6,8 C 6,7 C 5,6 C 87 % 1003,4 hPa 0,0 l/m 0 min 0 min 0 W/m 12,9 km/h (3 Bft) 97,96 %
15.03.2019 05:22 6,8 C 6,7 C 5,6 C 87 % 1003,4 hPa 0,0 l/m 0 min 0 min 0 W/m 22,5 km/h (4 Bft) 100,00 %
15.03.2019 05:24 6,8 C 6,7 C 5,6 C 87 % 1003,3 hPa 0,0 l/m 0 min 0 min 0 W/m 9,7 km/h (2 Bft) 100,00 %
15.03.2019 05:26 6,8 C 6,7 C 5,6 C 87 % 1003,3 hPa 0,0 l/m 0 min 0 min 0 W/m 16,1 km/h (3 Bft) 97,83 %
15.03.2019 05:28 6,8 C 6,7 C 5,6 C 87 % 1003,4 hPa 0,0 l/m 0 min 0 min 0 W/m 9,7 km/h (2 Bft) 97,87 %
15.03.2019 05:30 6,9 C 6,7 C 5,6 C 87 % 1003,3 hPa 0,0 l/m 0 min 0 min 0 W/m 9,7 km/h (2 Bft) 97,96 %
15.03.2019 05:32 6,9 C 6,7 C 5,6 C 87 % 1003,4 hPa 0,0 l/m 0 min 0 min 0 W/m 9,7 km/h (2 Bft) 100,00 %
15.03.2019 05:34 6,9 C 6,7 C 5,6 C 87 % 1003,4 hPa 0,0 l/m 0 min 0 min 0 W/m 6,4 km/h (2 Bft) 100,00 %
15.03.2019 05:36 6,9 C 6,7 C 5,6 C 87 % 1003,4 hPa 0,0 l/m 0 min 0 min 0 W/m 12,9 km/h (3 Bft) 98,00 %
15.03.2019 05:38 6,9 C 6,7 C 5,6 C 87 % 1003,4 hPa 0,0 l/m 0 min 0 min 0 W/m 16,1 km/h (3 Bft) 97,14 %
15.03.2019 05:40 6,9 C 6,7 C 5,6 C 87 % 1003,4 hPa 0,0 l/m 0 min 2 min 0 W/m 12,9 km/h (3 Bft) 97,87 %
15.03.2019 05:42 6,9 C 6,7 C 5,6 C 87 % 1003,4 hPa 0,0 l/m 0 min 0 min 0 W/m 9,7 km/h (2 Bft) 97,96 %
15.03.2019 05:44 6,9 C 6,7 C 5,6 C 87 % 1003,3 hPa 0,0 l/m 0 min 0 min 0 W/m 9,7 km/h (2 Bft) 95,74 %
15.03.2019 05:46 6,9 C 6,7 C 5,6 C 87 % 1003,4 hPa 0,0 l/m 0 min 0 min 0 W/m 6,4 km/h (2 Bft) 97,87 %
15.03.2019 05:48 6,9 C 6,7 C 5,6 C 87 % 1003,3 hPa 0,0 l/m 0 min 0 min 0 W/m 16,1 km/h (3 Bft) 98,00 %
15.03.2019 05:50 7,0 C 6,7 C 5,6 C 87 % 1003,2 hPa 0,0 l/m 0 min 0 min 0 W/m 9,7 km/h (2 Bft) 95,74 %
15.03.2019 05:52 7,0 C 6,7 C 5,6 C 87 % 1003,3 hPa 0,0 l/m 0 min 2 min 0 W/m 9,7 km/h (2 Bft) 97,87 %
15.03.2019 05:54 7,0 C 6,1 C 5,6 C 87 % 1003,2 hPa 0,0 l/m 0 min 0 min 0 W/m 16,1 km/h (3 Bft) 97,56 %
15.03.2019 05:56 7,1 C 6,1 C 5,6 C 88 % 1003,2 hPa 0,0 l/m 0 min 0 min 0 W/m 12,9 km/h (3 Bft) 97,96 %
15.03.2019 05:58 7,1 C 6,1 C 5,6 C 88 % 1003,2 hPa 0,0 l/m 0 min 0 min 0 W/m 12,9 km/h (3 Bft) 98,00 %
15.03.2019 06:00 7,1 C 6,1 C 5,6 C 88 % 1003,1 hPa 0,0 l/m 0 min 0 min 0 W/m 9,7 km/h (2 Bft) 97,56 %
15.03.2019 06:02 7,1 C 6,1 C 5,6 C 88 % 1003,1 hPa 0,0 l/m 0 min 0 min 0 W/m 9,7 km/h (2 Bft) 94,00 %
15.03.2019 06:04 7,1 C 6,7 C 5,6 C 88 % 1003,2 hPa 0,0 l/m 0 min 0 min 0 W/m 12,9 km/h (3 Bft) 93,62 %
15.03.2019 06:07 7,1 C 6,7 C 5,6 C 88 % 1003,1 hPa 0,0 l/m 0 min 0 min 0 W/m 19,3 km/h (3 Bft) 92,86 %
15.03.2019 06:08 7,1 C 6,7 C 5,6 C 88 % 1003,1 hPa 0,0 l/m 0 min 0 min 0 W/m 6,4 km/h (2 Bft) 95,65 %
15.03.2019 06:10 7,1 C 6,7 C 5,6 C 88 % 1003,1 hPa 0,0 l/m 0 min 0 min 0 W/m 9,7 km/h (2 Bft) 91,49 %
15.03.2019 06:12 7,1 C 6,7 C 5,6 C 88 % 1003,1 hPa 0,0 l/m 0 min 0 min 0 W/m 6,4 km/h (2 Bft) 91,49 %
15.03.2019 06:14 7,1 C 6,7 C 5,6 C 88 % 1003,1 hPa 0,0 l/m 0 min 0 min 0 W/m 6,4 km/h (2 Bft) 91,49 %
15.03.2019 06:16 7,1 C 6,7 C 5,6 C 89 % 1003,1 hPa 0,0 l/m 0 min 0 min 0 W/m 9,7 km/h (2 Bft) 93,62 %
15.03.2019 06:18 7,1 C 6,7 C 6,1 C 89 % 1003,0 hPa 0,0 l/m 0 min 0 min 0 W/m 16,1 km/h (3 Bft) 93,62 %
15.03.2019 06:20 7,1 C 6,7 C 6,1 C 89 % 1003,0 hPa 0,0 l/m 0 min 0 min 0 W/m 9,7 km/h (2 Bft) 93,48 %
15.03.2019 06:22 7,1 C 6,7 C 6,1 C 89 % 1003,0 hPa 0,0 l/m 0 min 0 min 0 W/m 16,1 km/h (3 Bft) 91,49 %
15.03.2019 06:24 7,1 C 6,7 C 6,1 C 89 % 1003,0 hPa 0,0 l/m 0 min 0 min 0 W/m 9,7 km/h (2 Bft) 91,49 %
15.03.2019 06:26 7,1 C 6,7 C 6,1 C 89 % 1003,0 hPa 0,0 l/m 0 min 0 min 0 W/m 19,3 km/h (3 Bft) 89,36 %
15.03.2019 06:28 7,1 C 6,7 C 6,1 C 89 % 1002,8 hPa 0,0 l/m 0 min 2 min 0 W/m 19,3 km/h (3 Bft) 91,49 %
15.03.2019 06:30 7,1 C 6,1 C 6,1 C 89 % 1002,8 hPa 0,0 l/m 0 min 2 min 0 W/m 9,7 km/h (2 Bft) 95,74 %
15.03.2019 06:32 7,1 C 6,1 C 5,6 C 89 % 1002,7 hPa 0,0 l/m 0 min 2 min 0 W/m 16,1 km/h (3 Bft) 95,65 %
15.03.2019 06:34 7,1 C 6,1 C 5,6 C 89 % 1002,7 hPa 0,0 l/m 0 min 2 min 0 W/m 12,9 km/h (3 Bft) 95,74 %
15.03.2019 06:36 7,2 C 6,1 C 5,6 C 90 % 1002,7 hPa 0,0 l/m 0 min 2 min 0 W/m 16,1 km/h (3 Bft) 95,74 %
15.03.2019 06:38 7,2 C 6,1 C 5,6 C 90 % 1002,7 hPa 0,0 l/m 0 min 2 min 0 W/m 19,3 km/h (3 Bft) 95,74 %
15.03.2019 06:40 7,2 C 6,1 C 5,6 C 90 % 1002,6 hPa 0,0 l/m 0 min 2 min 0 W/m 9,7 km/h (2 Bft) 95,74 %
15.03.2019 06:42 7,2 C 6,1 C 5,6 C 90 % 1002,8 hPa 0,0 l/m 0 min 2 min 0 W/m 9,7 km/h (2 Bft) 95,65 %
15.03.2019 06:44 7,2 C 6,1 C 5,6 C 90 % 1002,8 hPa 0,0 l/m 0 min 2 min 0 W/m 9,7 km/h (2 Bft) 95,74 %
15.03.2019 06:46 7,2 C 6,1 C 5,6 C 90 % 1002,8 hPa 0,0 l/m 0 min 2 min 0 W/m 12,9 km/h (3 Bft) 93,62 %
15.03.2019 06:48 7,2 C 6,1 C 5,6 C 90 % 1002,7 hPa 0,0 l/m 0 min 2 min 0 W/m 12,9 km/h (3 Bft) 91,49 %
15.03.2019 06:50 7,2 C 6,1 C 5,6 C 90 % 1002,7 hPa 0,0 l/m 0 min 2 min 0 W/m 16,1 km/h (3 Bft) 97,87 %
15.03.2019 06:52 7,2 C 6,1 C 5,6 C 90 % 1002,6 hPa 0,0 l/m 0 min 2 min 0 W/m 16,1 km/h (3 Bft) 97,87 %
15.03.2019 06:54 7,2 C 6,1 C 5,6 C 90 % 1002,5 hPa 0,0 l/m 0 min 2 min 0 W/m 16,1 km/h (3 Bft) 95,65 %
15.03.2019 06:56 7,2 C 6,1 C 5,6 C 90 % 1002,6 hPa 0,0 l/m 0 min 2 min 0 W/m 9,7 km/h (2 Bft) 97,87 %
15.03.2019 06:58 7,2 C 6,1 C 5,6 C 91 % 1002,6 hPa 0,0 l/m 0 min 2 min 0 W/m 12,9 km/h (3 Bft) 95,74 %
15.03.2019 07:00 7,2 C 6,1 C 5,6 C 91 % 1002,6 hPa 0,0 l/m 0 min 2 min 0 W/m 12,9 km/h (3 Bft) 100,00 %
15.03.2019 07:02 7,2 C 6,1 C 5,6 C 91 % 1002,5 hPa 0,0 l/m 0 min 2 min 0 W/m 12,9 km/h (3 Bft) 93,62 %
15.03.2019 07:04 7,2 C 6,1 C 5,6 C 91 % 1002,5 hPa 0,0 l/m 0 min 2 min 0 W/m 9,7 km/h (2 Bft) 98,00 %
15.03.2019 07:06 7,2 C 6,1 C 5,6 C 91 % 1002,5 hPa 0,0 l/m 0 min 2 min 2 W/m 16,1 km/h (3 Bft) 100,00 %
15.03.2019 07:08 7,2 C 6,1 C 5,6 C 91 % 1002,5 hPa 0,0 l/m 0 min 2 min 5 W/m 22,5 km/h (4 Bft) 100,00 %
15.03.2019 07:10 7,2 C 6,1 C 5,6 C 91 % 1002,4 hPa 0,0 l/m 0 min 2 min 5 W/m 19,3 km/h (3 Bft) 97,87 %
15.03.2019 07:12 7,2 C 6,1 C 5,6 C 91 % 1002,4 hPa 0,0 l/m 0 min 2 min 5 W/m 16,1 km/h (3 Bft) 97,87 %
15.03.2019 07:14 7,2 C 6,1 C 5,6 C 92 % 1002,4 hPa 0,0 l/m 0 min 2 min 5 W/m 16,1 km/h (3 Bft) 100,00 %
15.03.2019 07:16 7,2 C 6,1 C 5,6 C 92 % 1002,3 hPa 0,0 l/m 0 min 2 min 7 W/m 12,9 km/h (3 Bft) 100,00 %
15.03.2019 07:18 7,2 C 6,1 C 5,6 C 92 % 1002,3 hPa 0,0 l/m 0 min 2 min 7 W/m 9,7 km/h (2 Bft) 100,00 %
15.03.2019 07:20 7,2 C 6,1 C 5,6 C 92 % 1002,3 hPa 0,0 l/m 0 min 2 min 7 W/m 16,1 km/h (3 Bft) 100,00 %
15.03.2019 07:22 7,2 C 6,1 C 5,6 C 92 % 1002,2 hPa 0,0 l/m 0 min 2 min 9 W/m 12,9 km/h (3 Bft) 97,87 %
15.03.2019 07:24 7,2 C 6,1 C 5,6 C 92 % 1002,3 hPa 0,0 l/m 0 min 2 min 9 W/m 12,9 km/h (3 Bft) 100,00 %
15.03.2019 07:26 7,2 C 6,1 C 5,6 C 92 % 1002,3 hPa 0,0 l/m 0 min 2 min 9 W/m 19,3 km/h (3 Bft) 100,00 %
15.03.2019 07:28 7,2 C 6,1 C 5,6 C 92 % 1002,2 hPa 0,0 l/m 0 min 2 min 8 W/m 9,7 km/h (2 Bft) 97,83 %
15.03.2019 07:30 7,2 C 6,1 C 5,6 C 92 % 1002,3 hPa 0,0 l/m 0 min 2 min 7 W/m 6,4 km/h (2 Bft) 100,00 %
15.03.2019 07:32 7,2 C 6,1 C 5,6 C 92 % 1002,3 hPa 0,0 l/m 0 min 2 min 7 W/m 16,1 km/h (3 Bft) 100,00 %
15.03.2019 07:34 7,2 C 6,1 C 5,6 C 92 % 1002,2 hPa 0,0 l/m 0 min 2 min 8 W/m 12,9 km/h (3 Bft) 97,87 %
15.03.2019 07:36 7,2 C 6,1 C 5,6 C 92 % 1002,2 hPa 0,0 l/m 0 min 2 min 11 W/m 12,9 km/h (3 Bft) 100,00 %
15.03.2019 07:38 7,2 C 6,1 C 5,6 C 92 % 1002,2 hPa 0,0 l/m 0 min 2 min 12 W/m 12,9 km/h (3 Bft) 97,87 %
15.03.2019 07:40 7,2 C 6,1 C 5,6 C 93 % 1002,2 hPa 0,0 l/m 0 min 2 min 11 W/m 16,1 km/h (3 Bft) 97,83 %
15.03.2019 07:42 7,2 C 6,1 C 5,6 C 93 % 1002,2 hPa 0,2 l/m 0 min 2 min 11 W/m 12,9 km/h (3 Bft) 100,00 %
15.03.2019 07:44 7,2 C 6,1 C 5,6 C 93 % 1002,2 hPa 0,0 l/m 0 min 2 min 11 W/m 12,9 km/h (3 Bft) 100,00 %
15.03.2019 07:46 7,2 C 6,1 C 5,6 C 93 % 1002,1 hPa 0,0 l/m 0 min 2 min 11 W/m 16,1 km/h (3 Bft) 100,00 %
15.03.2019 07:48 7,2 C 6,1 C 5,6 C 93 % 1002,1 hPa 0,2 l/m 0 min 2 min 12 W/m 22,5 km/h (4 Bft) 100,00 %
15.03.2019 07:50 7,2 C 6,1 C 5,6 C 93 % 1002,1 hPa 0,0 l/m 0 min 2 min 12 W/m 16,1 km/h (3 Bft) 100,00 %
15.03.2019 07:52 7,2 C 6,1 C 5,6 C 93 % 1002,0 hPa 0,0 l/m 0 min 2 min 12 W/m 19,3 km/h (3 Bft) 100,00 %
15.03.2019 07:54 7,2 C 6,1 C 5,6 C 93 % 1002,1 hPa 0,0 l/m 0 min 2 min 11 W/m 9,7 km/h (2 Bft) 100,00 %
15.03.2019 07:56 7,2 C 6,1 C 5,6 C 93 % 1002,0 hPa 0,0 l/m 0 min 2 min 11 W/m 6,4 km/h (2 Bft) 100,00 %
15.03.2019 07:58 7,2 C 6,1 C 5,6 C 94 % 1002,0 hPa 0,0 l/m 0 min 2 min 11 W/m 6,4 km/h (2 Bft) 100,00 %
15.03.2019 08:00 7,2 C 6,1 C 5,6 C 93 % 1002,0 hPa 0,0 l/m 0 min 2 min 12 W/m 3,2 km/h (1 Bft) 100,00 %
15.03.2019 08:02 7,2 C 6,1 C 5,6 C 94 % 1002,0 hPa 0,0 l/m 0 min 2 min 14 W/m 6,4 km/h (2 Bft) 100,00 %
15.03.2019 08:04 7,2 C 6,1 C 5,6 C 94 % 1001,9 hPa 0,0 l/m 0 min 2 min 20 W/m 3,2 km/h (1 Bft) 100,00 %
15.03.2019 08:06 7,2 C 6,1 C 5,6 C 94 % 1001,9 hPa 0,0 l/m 0 min 2 min 24 W/m 12,9 km/h (3 Bft) 100,00 %
15.03.2019 08:08 7,2 C 6,1 C 5,6 C 94 % 1001,9 hPa 0,2 l/m 0 min 2 min 23 W/m 0,0 km/h (0 Bft) 100,00 %
15.03.2019 08:10 7,1 C 6,1 C 5,6 C 94 % 1001,9 hPa 0,0 l/m 0 min 2 min 23 W/m 0,0 km/h (0 Bft) 100,00 %
15.03.2019 08:12 7,2 C 6,1 C 5,6 C 94 % 1001,9 hPa 0,0 l/m 0 min 2 min 26 W/m 3,2 km/h (1 Bft) 97,87 %
15.03.2019 08:14 7,2 C 6,1 C 5,6 C 94 % 1001,8 hPa 0,0 l/m 0 min 2 min 24 W/m 9,7 km/h (2 Bft) 100,00 %
15.03.2019 08:16 7,2 C 6,1 C 5,6 C 94 % 1001,8 hPa 0,0 l/m 0 min 2 min 26 W/m 6,4 km/h (2 Bft) 100,00 %
15.03.2019 08:18 7,2 C 6,1 C 5,6 C 94 % 1001,8 hPa 0,2 l/m 0 min 2 min 26 W/m 6,4 km/h (2 Bft) 100,00 %
15.03.2019 08:20 7,2 C 6,1 C 5,6 C 94 % 1001,7 hPa 0,0 l/m 0 min 2 min 25 W/m 3,2 km/h (1 Bft) 100,00 %
15.03.2019 08:22 7,2 C 6,1 C 5,6 C 94 % 1001,6 hPa 0,0 l/m 0 min 2 min 25 W/m 6,4 km/h (2 Bft) 100,00 %
15.03.2019 08:24 7,2 C 6,1 C 5,6 C 95 % 1001,7 hPa 0,0 l/m 0 min 2 min 27 W/m 6,4 km/h (2 Bft) 97,87 %
15.03.2019 08:26 7,2 C 6,1 C 5,6 C 95 % 1001,6 hPa 0,2 l/m 0 min 2 min 32 W/m 12,9 km/h (3 Bft) 100,00 %
15.03.2019 08:28 7,2 C 6,1 C 5,6 C 95 % 1001,6 hPa 0,0 l/m 0 min 2 min 37 W/m 16,1 km/h (3 Bft) 100,00 %
15.03.2019 08:30 7,2 C 6,1 C 5,6 C 95 % 1001,5 hPa 0,0 l/m 0 min 2 min 34 W/m 9,7 km/h (2 Bft) 100,00 %
15.03.2019 08:32 7,2 C 6,1 C 5,6 C 95 % 1001,4 hPa 0,0 l/m 0 min 2 min 35 W/m 16,1 km/h (3 Bft) 100,00 %
15.03.2019 08:34 7,2 C 6,1 C 5,6 C 95 % 1001,4 hPa 0,2 l/m 0 min 2 min 31 W/m 9,7 km/h (2 Bft) 97,87 %
15.03.2019 08:36 7,2 C 6,1 C 5,6 C 95 % 1001,4 hPa 0,0 l/m 0 min 2 min 29 W/m 9,7 km/h (2 Bft) 97,87 %
15.03.2019 08:38 7,2 C 6,1 C 5,6 C 95 % 1001,3 hPa 0,0 l/m 0 min 2 min 29 W/m 3,2 km/h (1 Bft) 93,62 %
15.03.2019 08:40 7,2 C 6,1 C 5,6 C 95 % 1001,3 hPa 0,0 l/m 0 min 2 min 32 W/m 9,7 km/h (2 Bft) 95,74 %
15.03.2019 08:42 7,2 C 6,1 C 5,6 C 95 % 1001,2 hPa 0,2 l/m 0 min 2 min 38 W/m 12,9 km/h (3 Bft) 95,74 %
15.03.2019 08:44 7,2 C 6,1 C 5,6 C 95 % 1001,2 hPa 0,0 l/m 0 min 2 min 42 W/m 16,1 km/h (3 Bft) 93,62 %
15.03.2019 08:46 7,2 C 6,1 C 5,6 C 95 % 1001,2 hPa 0,0 l/m 0 min 2 min 36 W/m 9,7 km/h (2 Bft) 95,74 %
15.03.2019 08:48 7,2 C 6,1 C 5,6 C 95 % 1001,3 hPa 0,0 l/m 0 min 2 min 32 W/m 12,9 km/h (3 Bft) 95,74 %
15.03.2019 08:50 7,2 C 6,1 C 5,6 C 95 % 1001,1 hPa 0,2 l/m 0 min 2 min 39 W/m 19,3 km/h (3 Bft) 93,48 %
15.03.2019 08:52 7,2 C 6,1 C 5,6 C 95 % 1001,0 hPa 0,0 l/m 0 min 2 min 38 W/m 6,4 km/h (2 Bft) 95,74 %
15.03.2019 08:54 7,2 C 6,1 C 5,6 C 95 % 1001,0 hPa 0,0 l/m 0 min 2 min 38 W/m 6,4 km/h (2 Bft) 93,62 %
15.03.2019 08:56 7,2 C 6,1 C 5,6 C 95 % 1001,1 hPa 0,0 l/m 0 min 2 min 41 W/m 16,1 km/h (3 Bft) 95,74 %
15.03.2019 08:58 7,2 C 6,1 C 5,6 C 96 % 1001,0 hPa 0,0 l/m 0 min 2 min 47 W/m 12,9 km/h (3 Bft) 95,74 %
15.03.2019 09:00 7,2 C 6,1 C 5,6 C 96 % 1001,0 hPa 0,0 l/m 0 min 2 min 41 W/m 12,9 km/h (3 Bft) 95,74 %
15.03.2019 09:02 7,2 C 6,1 C 6,1 C 96 % 1000,9 hPa 0,2 l/m 0 min 2 min 43 W/m 12,9 km/h (3 Bft) 91,30 %
15.03.2019 09:04 7,2 C 6,7 C 6,1 C 96 % 1000,9 hPa 0,0 l/m 0 min 2 min 45 W/m 9,7 km/h (2 Bft) 95,74 %
15.03.2019 09:06 7,2 C 6,7 C 6,1 C 96 % 1000,9 hPa 0,0 l/m 0 min 2 min 45 W/m 9,7 km/h (2 Bft) 93,62 %
15.03.2019 09:08 7,2 C 6,7 C 6,1 C 96 % 1000,9 hPa 0,0 l/m 0 min 2 min 38 W/m 16,1 km/h (3 Bft) 95,74 %
15.03.2019 09:10 7,2 C 6,7 C 6,1 C 96 % 1000,9 hPa 0,0 l/m 0 min 2 min 39 W/m 6,4 km/h (2 Bft) 95,74 %
15.03.2019 09:12 7,2 C 6,7 C 6,1 C 96 % 1000,9 hPa 0,2 l/m 0 min 2 min 45 W/m 3,2 km/h (1 Bft) 95,74 %
15.03.2019 09:14 7,2 C 6,7 C 6,1 C 96 % 1001,0 hPa 0,0 l/m 0 min 2 min 51 W/m 9,7 km/h (2 Bft) 95,74 %
15.03.2019 09:16 7,3 C 6,7 C 6,1 C 96 % 1001,0 hPa 0,0 l/m 0 min 2 min 55 W/m 19,3 km/h (3 Bft) 95,65 %
15.03.2019 09:18 7,3 C 6,7 C 6,1 C 96 % 1000,9 hPa 0,0 l/m 0 min 2 min 52 W/m 16,1 km/h (3 Bft) 93,62 %
15.03.2019 09:20 7,3 C 6,7 C 6,1 C 96 % 1000,9 hPa 0,0 l/m 0 min 2 min 59 W/m 9,7 km/h (2 Bft) 95,74 %
15.03.2019 09:22 7,4 C 6,7 C 6,1 C 96 % 1000,9 hPa 0,0 l/m 0 min 2 min 53 W/m 19,3 km/h (3 Bft) 95,74 %
15.03.2019 09:24 7,4 C 6,7 C 6,7 C 96 % 1000,9 hPa 0,0 l/m 0 min 0 min 53 W/m 19,3 km/h (3 Bft) 95,74 %
15.03.2019 09:26 7,5 C 7,2 C 6,7 C 96 % 1000,9 hPa 0,0 l/m 0 min 0 min 46 W/m 19,3 km/h (3 Bft) 93,62 %
15.03.2019 09:28 7,6 C 7,2 C 6,7 C 97 % 1000,9 hPa 0,0 l/m 0 min 0 min 41 W/m 9,7 km/h (2 Bft) 95,65 %
15.03.2019 09:30 7,6 C 7,2 C 6,7 C 97 % 1000,9 hPa 0,0 l/m 0 min 2 min 44 W/m 22,5 km/h (4 Bft) 95,74 %
15.03.2019 09:32 7,7 C 7,2 C 6,7 C 97 % 1000,9 hPa 0,0 l/m 0 min 2 min 49 W/m 16,1 km/h (3 Bft) 95,74 %
15.03.2019 09:34 7,8 C 7,2 C 6,7 C 97 % 1000,9 hPa 0,0 l/m 0 min 0 min 47 W/m 16,1 km/h (3 Bft) 95,74 %
15.03.2019 09:36 7,9 C 7,2 C 6,7 C 97 % 1000,9 hPa 0,0 l/m 0 min 2 min 48 W/m 9,7 km/h (2 Bft) 97,87 %
15.03.2019 09:38 7,9 C 7,2 C 7,2 C 97 % 1000,8 hPa 0,0 l/m 0 min 2 min 48 W/m 9,7 km/h (2 Bft) 97,87 %
15.03.2019 09:40 8,0 C 7,8 C 7,2 C 97 % 1000,8 hPa 0,0 l/m 0 min 2 min 52 W/m 6,4 km/h (2 Bft) 97,83 %
15.03.2019 09:42 8,1 C 7,8 C 7,2 C 97 % 1000,8 hPa 0,0 l/m 0 min 0 min 53 W/m 9,7 km/h (2 Bft) 100,00 %
15.03.2019 09:44 8,1 C 7,8 C 7,2 C 97 % 1000,9 hPa 0,0 l/m 0 min 2 min 51 W/m 6,4 km/h (2 Bft) 97,87 %
15.03.2019 09:46 8,2 C 7,8 C 7,2 C 97 % 1000,9 hPa 0,0 l/m 0 min 2 min 51 W/m 3,2 km/h (1 Bft) 97,87 %
15.03.2019 09:48 8,3 C 7,8 C 7,2 C 97 % 1000,9 hPa 0,0 l/m 0 min 2 min 46 W/m 19,3 km/h (3 Bft) 97,87 %
15.03.2019 09:50 8,3 C 7,8 C 7,2 C 97 % 1001,0 hPa 0,0 l/m 0 min 2 min 50 W/m 29,0 km/h (5 Bft) 97,87 %
15.03.2019 09:52 8,4 C 7,8 C 7,2 C 97 % 1000,9 hPa 0,0 l/m 0 min 2 min 57 W/m 19,3 km/h (3 Bft) 97,83 %
15.03.2019 09:54 8,6 C 8,3 C 7,8 C 97 % 1000,9 hPa 0,0 l/m 0 min 2 min 65 W/m 6,4 km/h (2 Bft) 97,87 %
15.03.2019 09:56 8,6 C 8,3 C 7,8 C 97 % 1001,0 hPa 0,0 l/m 0 min 2 min 70 W/m 19,3 km/h (3 Bft) 95,74 %
15.03.2019 09:58 8,7 C 8,3 C 7,8 C 97 % 1000,9 hPa 0,0 l/m 0 min 2 min 76 W/m 9,7 km/h (2 Bft) 97,87 %
15.03.2019 10:00 8,8 C 8,3 C 7,8 C 97 % 1000,9 hPa 0,0 l/m 0 min 2 min 70 W/m 9,7 km/h (2 Bft) 97,87 %
15.03.2019 10:02 8,8 C 8,3 C 7,8 C 98 % 1000,9 hPa 0,0 l/m 0 min 2 min 68 W/m 9,7 km/h (2 Bft) 97,87 %
15.03.2019 10:04 8,9 C 8,3 C 7,8 C 98 % 1001,0 hPa 0,2 l/m 0 min 2 min 65 W/m 9,7 km/h (2 Bft) 95,65 %
15.03.2019 10:06 8,9 C 8,3 C 7,8 C 98 % 1000,9 hPa 0,0 l/m 0 min 2 min 68 W/m 9,7 km/h (2 Bft) 100,00 %
15.03.2019 10:08 9,0 C 8,3 C 7,8 C 98 % 1001,0 hPa 0,0 l/m 0 min 2 min 84 W/m 29,0 km/h (5 Bft) 97,87 %
15.03.2019 10:10 9,1 C 8,3 C 7,8 C 98 % 1000,9 hPa 0,0 l/m 0 min 2 min 81 W/m 22,5 km/h (4 Bft) 100,00 %
15.03.2019 10:12 9,2 C 8,9 C 8,3 C 98 % 1000,9 hPa 0,0 l/m 0 min 2 min 85 W/m 12,9 km/h (3 Bft) 100,00 %
15.03.2019 10:14 9,2 C 8,9 C 8,3 C 98 % 1001,0 hPa 0,0 l/m 0 min 2 min 74 W/m 12,9 km/h (3 Bft) 100,00 %
15.03.2019 10:16 9,2 C 8,9 C 8,3 C 98 % 1000,9 hPa 0,0 l/m 0 min 2 min 73 W/m 16,1 km/h (3 Bft) 100,00 %
15.03.2019 10:18 9,3 C 8,9 C 8,3 C 98 % 1000,9 hPa 0,0 l/m 0 min 2 min 88 W/m 9,7 km/h (2 Bft) 97,87 %
15.03.2019 10:20 9,3 C 8,9 C 8,3 C 98 % 1001,0 hPa 0,0 l/m 0 min 2 min 85 W/m 6,4 km/h (2 Bft) 100,00 %
15.03.2019 10:22 9,4 C 8,9 C 8,3 C 98 % 1001,0 hPa 0,0 l/m 0 min 2 min 84 W/m 16,1 km/h (3 Bft) 100,00 %
15.03.2019 10:24 9,4 C 8,9 C 8,3 C 98 % 1001,0 hPa 0,0 l/m 0 min 2 min 76 W/m 12,9 km/h (3 Bft) 100,00 %
15.03.2019 10:26 9,4 C 8,9 C 8,3 C 98 % 1001,0 hPa 0,0 l/m 0 min 2 min 72 W/m 9,7 km/h (2 Bft) 100,00 %
15.03.2019 10:28 9,5 C 8,9 C 8,3 C 98 % 1001,1 hPa 0,0 l/m 0 min 2 min 72 W/m 9,7 km/h (2 Bft) 100,00 %
15.03.2019 10:30 9,5 C 8,9 C 8,3 C 98 % 1001,0 hPa 0,0 l/m 0 min 2 min 66 W/m 16,1 km/h (3 Bft) 100,00 %
15.03.2019 10:32 9,6 C 8,9 C 8,3 C 98 % 1001,0 hPa 0,0 l/m 0 min 2 min 71 W/m 22,5 km/h (4 Bft) 97,87 %
15.03.2019 10:34 9,6 C 8,9 C 8,3 C 98 % 1001,0 hPa 0,0 l/m 0 min 2 min 80 W/m 19,3 km/h (3 Bft) 100,00 %
15.03.2019 10:36 9,7 C 9,4 C 8,9 C 98 % 1001,0 hPa 0,0 l/m 0 min 2 min 95 W/m 22,5 km/h (4 Bft) 100,00 %
15.03.2019 10:38 9,7 C 9,4 C 8,9 C 98 % 1001,0 hPa 0,0 l/m 0 min 2 min 85 W/m 16,1 km/h (3 Bft) 100,00 %
15.03.2019 10:40 9,8 C 9,4 C 8,9 C 98 % 1001,0 hPa 0,0 l/m 0 min 2 min 88 W/m 22,5 km/h (4 Bft) 100,00 %
15.03.2019 10:42 9,8 C 9,4 C 8,9 C 98 % 1001,0 hPa 0,0 l/m 0 min 2 min 92 W/m 9,7 km/h (2 Bft) 100,00 %
15.03.2019 10:44 9,8 C 9,4 C 8,9 C 98 % 1001,0 hPa 0,0 l/m 0 min 2 min 87 W/m 9,7 km/h (2 Bft) 100,00 %
15.03.2019 10:46 9,9 C 9,4 C 8,9 C 98 % 1001,0 hPa 0,0 l/m 0 min 2 min 76 W/m 9,7 km/h (2 Bft) 100,00 %
15.03.2019 10:48 9,9 C 9,4 C 8,9 C 98 % 1000,9 hPa 0,0 l/m 0 min 2 min 84 W/m 19,3 km/h (3 Bft) 100,00 %
15.03.2019 10:50 9,9 C 9,4 C 8,9 C 98 % 1001,0 hPa 0,2 l/m 0 min 2 min 79 W/m 22,5 km/h (4 Bft) 100,00 %
15.03.2019 10:52 9,9 C 9,4 C 8,9 C 98 % 1001,1 hPa 0,0 l/m 0 min 2 min 79 W/m 6,4 km/h (2 Bft) 100,00 %
15.03.2019 10:54 10,0 C 9,4 C 8,9 C 98 % 1001,0 hPa 0,0 l/m 0 min 2 min 82 W/m 22,5 km/h (4 Bft) 100,00 %
15.03.2019 10:56 10,0 C 9,4 C 8,9 C 98 % 1001,0 hPa 0,0 l/m 0 min 2 min 90 W/m 16,1 km/h (3 Bft) 100,00 %
15.03.2019 10:58 10,1 C 9,4 C 8,9 C 98 % 1001,0 hPa 0,0 l/m 0 min 2 min 88 W/m 16,1 km/h (3 Bft) 97,87 %
15.03.2019 11:00 10,1 C 9,4 C 8,9 C 98 % 1001,1 hPa 0,0 l/m 0 min 2 min 82 W/m 22,5 km/h (4 Bft) 97,87 %
15.03.2019 11:02 10,1 C 9,4 C 8,9 C 98 % 1001,1 hPa 0,0 l/m 0 min 2 min 72 W/m 9,7 km/h (2 Bft) 97,83 %
15.03.2019 11:04 10,2 C 9,4 C 8,9 C 98 % 1001,2 hPa 0,0 l/m 0 min 2 min 61 W/m 12,9 km/h (3 Bft) 95,74 %
15.03.2019 11:06 10,2 C 9,4 C 8,9 C 98 % 1001,2 hPa 0,0 l/m 0 min 2 min 59 W/m 19,3 km/h (3 Bft) 95,74 %
15.03.2019 11:08 10,2 C 9,4 C 8,9 C 98 % 1001,0 hPa 0,0 l/m 0 min 2 min 66 W/m 16,1 km/h (3 Bft) 97,87 %
15.03.2019 11:10 10,2 C 9,4 C 8,9 C 98 % 1001,1 hPa 0,0 l/m 0 min 2 min 71 W/m 9,7 km/h (2 Bft) 93,62 %
15.03.2019 11:12 10,3 C 9,4 C 8,9 C 98 % 1001,2 hPa 0,0 l/m 0 min 0 min 68 W/m 9,7 km/h (2 Bft) 97,87 %
15.03.2019 11:14 10,3 C 9,4 C 8,9 C 98 % 1001,2 hPa 0,0 l/m 0 min 0 min 77 W/m 16,1 km/h (3 Bft) 97,83 %
15.03.2019 11:16 10,3 C 9,4 C 8,9 C 99 % 1001,2 hPa 0,0 l/m 0 min 2 min 75 W/m 22,5 km/h (4 Bft) 97,87 %
15.03.2019 11:18 10,3 C 9,4 C 8,9 C 99 % 1001,2 hPa 0,0 l/m 0 min 2 min 68 W/m 9,7 km/h (2 Bft) 97,87 %
15.03.2019 11:20 10,3 C 9,4 C 9,4 C 99 % 1001,1 hPa 0,0 l/m 0 min 2 min 71 W/m 12,9 km/h (3 Bft) 95,74 %
15.03.2019 11:22 10,4 C 9,4 C 8,9 C 99 % 1001,2 hPa 0,0 l/m 0 min 2 min 57 W/m 19,3 km/h (3 Bft) 97,87 %
15.03.2019 11:24 10,4 C 9,4 C 8,9 C 99 % 1001,3 hPa 0,0 l/m 0 min 2 min 51 W/m 12,9 km/h (3 Bft) 97,87 %
15.03.2019 11:26 10,4 C 9,4 C 8,9 C 99 % 1001,4 hPa 0,0 l/m 0 min 2 min 51 W/m 25,7 km/h (4 Bft) 97,83 %
15.03.2019 11:28 10,4 C 9,4 C 9,4 C 99 % 1001,3 hPa 0,0 l/m 0 min 2 min 54 W/m 12,9 km/h (3 Bft) 97,87 %
15.03.2019 11:30 10,4 C 9,4 C 8,9 C 99 % 1001,3 hPa 0,0 l/m 0 min 2 min 53 W/m 19,3 km/h (3 Bft) 97,87 %
15.03.2019 11:32 10,4 C 9,4 C 9,4 C 99 % 1001,3 hPa 0,0 l/m 0 min 2 min 53 W/m 12,9 km/h (3 Bft) 97,87 %
15.03.2019 11:34 10,4 C 9,4 C 9,4 C 99 % 1001,4 hPa 0,0 l/m 0 min 2 min 54 W/m 12,9 km/h (3 Bft) 97,87 %
15.03.2019 11:36 10,4 C 9,4 C 9,4 C 99 % 1001,3 hPa 0,0 l/m 0 min 0 min 57 W/m 25,7 km/h (4 Bft) 97,83 %
15.03.2019 11:38 10,4 C 9,4 C 9,4 C 99 % 1001,3 hPa 0,0 l/m 0 min 2 min 48 W/m 19,3 km/h (3 Bft) 97,87 %
15.03.2019 11:40 10,4 C 9,4 C 9,4 C 99 % 1001,4 hPa 0,0 l/m 0 min 2 min 51 W/m 25,7 km/h (4 Bft) 97,87 %
15.03.2019 11:42 10,4 C 10,0 C 9,4 C 99 % 1001,5 hPa 0,0 l/m 0 min 2 min 54 W/m 22,5 km/h (4 Bft) 100,00 %
15.03.2019 11:44 10,5 C 10,0 C 9,4 C 99 % 1001,5 hPa 0,0 l/m 0 min 0 min 61 W/m 22,5 km/h (4 Bft) 100,00 %
15.03.2019 11:46 10,5 C 10,0 C 9,4 C 98 % 1001,4 hPa 0,0 l/m 0 min 0 min 64 W/m 25,7 km/h (4 Bft) 100,00 %
15.03.2019 11:48 10,5 C 10,0 C 9,4 C 98 % 1001,5 hPa 0,0 l/m 0 min 0 min 65 W/m 22,5 km/h (4 Bft) 97,83 %
15.03.2019 11:50 10,5 C 10,0 C 9,4 C 98 % 1001,5 hPa 0,0 l/m 0 min 0 min 64 W/m 29,0 km/h (5 Bft) 95,74 %
15.03.2019 11:52 10,5 C 10,0 C 9,4 C 98 % 1001,5 hPa 0,0 l/m 0 min 0 min 55 W/m 12,9 km/h (3 Bft) 100,00 %
15.03.2019 11:54 10,6 C 10,0 C 9,4 C 98 % 1001,5 hPa 0,0 l/m 0 min 2 min 53 W/m 22,5 km/h (4 Bft) 100,00 %
15.03.2019 11:56 10,6 C 10,0 C 9,4 C 98 % 1001,5 hPa 0,0 l/m 0 min 0 min 56 W/m 22,5 km/h (4 Bft) 97,87 %
15.03.2019 11:58 10,6 C 10,0 C 9,4 C 98 % 1001,5 hPa 0,0 l/m 0 min 0 min 52 W/m 35,4 km/h (5 Bft) 97,87 %
15.03.2019 12:00 10,6 C 10,0 C 9,4 C 98 % 1001,5 hPa 0,0 l/m 0 min 2 min 47 W/m 25,7 km/h (4 Bft) 97,83 %
15.03.2019 12:02 10,6 C 10,0 C 9,4 C 98 % 1001,5 hPa 0,0 l/m 0 min 0 min 49 W/m 16,1 km/h (3 Bft) 97,87 %
15.03.2019 12:04 10,6 C 10,0 C 9,4 C 98 % 1001,5 hPa 0,0 l/m 0 min 0 min 49 W/m 19,3 km/h (3 Bft) 97,87 %
15.03.2019 12:07 10,7 C 10,0 C 9,4 C 98 % 1001,6 hPa 0,0 l/m 0 min 0 min 54 W/m 32,2 km/h (5 Bft) 97,14 %
15.03.2019 12:08 10,7 C 10,0 C 9,4 C 99 % 1001,6 hPa 0,0 l/m 0 min 0 min 61 W/m 16,1 km/h (3 Bft) 95,83 %
15.03.2019 12:10 10,7 C 10,0 C 9,4 C 99 % 1001,6 hPa 0,0 l/m 0 min 0 min 72 W/m 35,4 km/h (5 Bft) 97,87 %
15.03.2019 12:12 10,7 C 10,0 C 9,4 C 99 % 1001,6 hPa 0,0 l/m 0 min 0 min 73 W/m 9,7 km/h (2 Bft) 95,65 %
15.03.2019 12:14 10,7 C 10,0 C 9,4 C 99 % 1001,7 hPa 0,0 l/m 0 min 2 min 68 W/m 22,5 km/h (4 Bft) 93,62 %
15.03.2019 12:16 10,7 C 10,0 C 9,4 C 99 % 1001,7 hPa 0,0 l/m 0 min 2 min 85 W/m 16,1 km/h (3 Bft) 93,62 %
15.03.2019 12:18 10,8 C 10,6 C 9,4 C 99 % 1001,8 hPa 0,0 l/m 0 min 2 min 89 W/m 12,9 km/h (3 Bft) 95,74 %
15.03.2019 12:20 10,8 C 10,6 C 10,0 C 98 % 1001,9 hPa 0,0 l/m 0 min 0 min 115 W/m 12,9 km/h (3 Bft) 97,14 %
15.03.2019 12:22 10,8 C 10,0 C 9,4 C 98 % 1001,8 hPa 0,0 l/m 0 min 2 min 79 W/m 25,7 km/h (4 Bft) 95,74 %
15.03.2019 12:24 10,8 C 10,0 C 9,4 C 98 % 1002,0 hPa 0,0 l/m 0 min 2 min 74 W/m 35,4 km/h (5 Bft) 93,62 %
15.03.2019 12:26 10,9 C 10,0 C 9,4 C 98 % 1001,9 hPa 0,0 l/m 0 min 2 min 96 W/m 19,3 km/h (3 Bft) 95,65 %
15.03.2019 12:28 10,9 C 10,0 C 9,4 C 98 % 1001,9 hPa 0,0 l/m 0 min 2 min 104 W/m 19,3 km/h (3 Bft) 93,62 %
15.03.2019 12:30 10,9 C 10,6 C 9,4 C 98 % 1001,9 hPa 0,0 l/m 0 min 2 min 107 W/m 25,7 km/h (4 Bft) 95,74 %
15.03.2019 12:32 10,9 C 10,0 C 9,4 C 98 % 1001,8 hPa 0,0 l/m 0 min 2 min 117 W/m 22,5 km/h (4 Bft) 94,92 %
15.03.2019 12:34 10,9 C 10,6 C 10,0 C 98 % 1001,9 hPa 0,0 l/m 0 min 2 min 118 W/m 19,3 km/h (3 Bft) 94,29 %
15.03.2019 12:36 11,0 C 10,6 C 10,0 C 98 % 1001,8 hPa 0,0 l/m 0 min 2 min 106 W/m 19,3 km/h (3 Bft) 96,55 %
15.03.2019 12:38 11,0 C 10,6 C 10,0 C 98 % 1001,9 hPa 0,0 l/m 0 min 2 min 105 W/m 16,1 km/h (3 Bft) 95,74 %
15.03.2019 12:40 11,1 C 10,6 C 10,0 C 98 % 1001,8 hPa 0,0 l/m 0 min 2 min 86 W/m 19,3 km/h (3 Bft) 97,14 %
15.03.2019 12:42 11,1 C 10,6 C 10,0 C 98 % 1001,7 hPa 0,0 l/m 0 min 2 min 106 W/m 16,1 km/h (3 Bft) 95,74 %
15.03.2019 12:44 11,1 C 10,6 C 10,0 C 98 % 1001,8 hPa 0,0 l/m 0 min 2 min 145 W/m 32,2 km/h (5 Bft) 95,74 %
15.03.2019 12:46 11,1 C 10,6 C 10,0 C 98 % 1001,9 hPa 0,0 l/m 0 min 2 min 128 W/m 22,5 km/h (4 Bft) 96,55 %
15.03.2019 12:48 11,1 C 10,6 C 10,0 C 98 % 1001,9 hPa 0,0 l/m 0 min 2 min 125 W/m 16,1 km/h (3 Bft) 94,44 %
15.03.2019 12:50 11,2 C 10,6 C 10,0 C 98 % 1001,8 hPa 0,0 l/m 0 min 2 min 94 W/m 16,1 km/h (3 Bft) 95,74 %
15.03.2019 12:52 11,2 C 10,6 C 10,0 C 98 % 1001,9 hPa 0,0 l/m 0 min 2 min 89 W/m 22,5 km/h (4 Bft) 96,55 %
15.03.2019 12:54 11,2 C 10,6 C 10,0 C 98 % 1001,9 hPa 0,0 l/m 0 min 2 min 79 W/m 25,7 km/h (4 Bft) 93,62 %
15.03.2019 12:56 11,2 C 10,6 C 10,0 C 98 % 1001,9 hPa 0,0 l/m 0 min 2 min 103 W/m 16,1 km/h (3 Bft) 97,14 %
15.03.2019 12:58 11,2 C 10,6 C 10,0 C 98 % 1001,9 hPa 0,0 l/m 0 min 2 min 117 W/m 22,5 km/h (4 Bft) 94,83 %
15.03.2019 13:00 11,3 C 10,6 C 10,0 C 98 % 1001,9 hPa 0,0 l/m 0 min 2 min 100 W/m 25,7 km/h (4 Bft) 97,22 %
15.03.2019 13:02 11,3 C 11,1 C 10,0 C 98 % 1001,9 hPa 0,0 l/m 0 min 2 min 115 W/m 16,1 km/h (3 Bft) 97,83 %
15.03.2019 13:04 11,3 C 11,1 C 10,0 C 98 % 1001,8 hPa 0,0 l/m 0 min 0 min 152 W/m 38,6 km/h (5 Bft) 98,31 %
15.03.2019 13:06 11,3 C 11,1 C 10,6 C 98 % 1002,0 hPa 0,0 l/m 0 min 2 min 198 W/m 25,7 km/h (4 Bft) 100,00 %
15.03.2019 13:08 11,4 C 11,7 C 10,6 C 98 % 1001,9 hPa 0,2 l/m 0 min 2 min 241 W/m 35,4 km/h (5 Bft) 100,00 %
15.03.2019 13:10 11,4 C 11,7 C 10,6 C 97 % 1001,9 hPa 0,0 l/m 0 min 0 min 228 W/m 16,1 km/h (3 Bft) 100,00 %
15.03.2019 13:12 11,5 C 12,2 C 11,1 C 97 % 1001,8 hPa 0,0 l/m 0 min 0 min 255 W/m 25,7 km/h (4 Bft) 100,00 %
15.03.2019 13:14 11,6 C 11,7 C 10,6 C 97 % 1001,8 hPa 0,0 l/m 0 min 2 min 190 W/m 25,7 km/h (4 Bft) 97,83 %
15.03.2019 13:16 11,6 C 11,7 C 10,6 C 97 % 1001,8 hPa 0,0 l/m 0 min 2 min 141 W/m 57,9 km/h (7 Bft) 100,00 %
15.03.2019 13:18 11,6 C 11,1 C 10,0 C 97 % 1001,8 hPa 0,0 l/m 0 min 2 min 120 W/m 25,7 km/h (4 Bft) 100,00 %
15.03.2019 13:20 11,7 C 11,1 C 10,0 C 97 % 1001,8 hPa 0,0 l/m 0 min 2 min 118 W/m 19,3 km/h (3 Bft) 94,29 %
15.03.2019 13:22 11,7 C 11,1 C 10,0 C 97 % 1001,9 hPa 0,0 l/m 0 min 2 min 146 W/m 19,3 km/h (3 Bft) 96,55 %
15.03.2019 13:24 11,7 C 11,7 C 10,6 C 97 % 1001,7 hPa 0,0 l/m 0 min 2 min 221 W/m 29,0 km/h (5 Bft) 97,87 %
15.03.2019 13:26 11,7 C 11,7 C 10,6 C 97 % 1001,7 hPa 0,0 l/m 0 min 2 min 238 W/m 29,0 km/h (5 Bft) 100,00 %
15.03.2019 13:28 11,7 C 12,2 C 10,6 C 97 % 1001,8 hPa 0,0 l/m 0 min 2 min 265 W/m 25,7 km/h (4 Bft) 95,74 %
15.03.2019 13:30 11,7 C 12,8 C 10,6 C 97 % 1001,7 hPa 0,0 l/m 2 min 2 min 289 W/m 25,7 km/h (4 Bft) 97,87 %
15.03.2019 13:32 11,8 C 13,9 C 11,7 C 97 % 1001,7 hPa 0,0 l/m 2 min 2 min 355 W/m 38,6 km/h (5 Bft) 95,74 %
15.03.2019 13:34 11,9 C 15,0 C 12,2 C 97 % 1001,7 hPa 0,0 l/m 2 min 2 min 505 W/m 22,5 km/h (4 Bft) 98,28 %
15.03.2019 13:36 12,1 C 15,0 C 12,2 C 96 % 1001,8 hPa 0,0 l/m 2 min 2 min 534 W/m 19,3 km/h (3 Bft) 97,87 %
15.03.2019 13:38 12,1 C 13,9 C 11,7 C 97 % 1001,8 hPa 0,0 l/m 2 min 0 min 339 W/m 16,1 km/h (3 Bft) 97,87 %
15.03.2019 13:40 12,2 C 13,9 C 11,7 C 96 % 1001,8 hPa 0,0 l/m 2 min 2 min 348 W/m 32,2 km/h (5 Bft) 97,14 %
15.03.2019 13:42 12,2 C 13,3 C 11,7 C 96 % 1002,0 hPa 0,0 l/m 0 min 2 min 271 W/m 45,1 km/h (6 Bft) 96,61 %
15.03.2019 13:44 12,3 C 13,3 C 11,7 C 96 % 1002,0 hPa 0,0 l/m 0 min 0 min 238 W/m 22,5 km/h (4 Bft) 97,87 %
15.03.2019 13:46 12,3 C 13,3 C 11,1 C 96 % 1001,9 hPa 0,0 l/m 0 min 0 min 200 W/m 19,3 km/h (3 Bft) 97,14 %
15.03.2019 13:48 12,3 C 12,8 C 11,1 C 96 % 1002,0 hPa 0,0 l/m 0 min 0 min 161 W/m 25,7 km/h (4 Bft) 98,28 %
15.03.2019 13:50 12,4 C 12,8 C 11,1 C 95 % 1001,9 hPa 0,0 l/m 0 min 0 min 203 W/m 19,3 km/h (3 Bft) 97,14 %
15.03.2019 13:52 12,4 C 13,3 C 11,7 C 95 % 1001,9 hPa 0,0 l/m 0 min 0 min 249 W/m 19,3 km/h (3 Bft) 98,31 %
15.03.2019 13:54 12,4 C 13,9 C 11,7 C 95 % 1001,9 hPa 0,0 l/m 2 min 0 min 300 W/m 29,0 km/h (5 Bft) 97,14 %
15.03.2019 13:56 12,5 C 13,9 C 11,7 C 94 % 1001,8 hPa 0,0 l/m 2 min 0 min 324 W/m 35,4 km/h (5 Bft) 98,31 %
15.03.2019 13:58 12,5 C 13,9 C 11,7 C 94 % 1001,7 hPa 0,0 l/m 2 min 0 min 309 W/m 19,3 km/h (3 Bft) 97,14 %
15.03.2019 14:00 12,6 C 13,3 C 11,7 C 94 % 1001,6 hPa 0,0 l/m 2 min 0 min 287 W/m 22,5 km/h (4 Bft) 98,28 %
15.03.2019 14:02 12,6 C 13,3 C 11,7 C 93 % 1001,7 hPa 0,0 l/m 0 min 0 min 273 W/m 25,7 km/h (4 Bft) 97,14 %
15.03.2019 14:04 12,7 C 13,3 C 11,7 C 93 % 1001,6 hPa 0,0 l/m 2 min 0 min 304 W/m 32,2 km/h (5 Bft) 97,87 %
15.03.2019 14:06 12,7 C 13,3 C 11,7 C 92 % 1001,7 hPa 0,0 l/m 0 min 0 min 270 W/m 19,3 km/h (3 Bft) 100,00 %
15.03.2019 14:08 12,7 C 13,3 C 11,7 C 92 % 1001,8 hPa 0,0 l/m 2 min 0 min 285 W/m 19,3 km/h (3 Bft) 100,00 %
15.03.2019 14:10 12,7 C 13,3 C 11,7 C 92 % 1001,7 hPa 0,0 l/m 0 min 0 min 270 W/m 35,4 km/h (5 Bft) 100,00 %
15.03.2019 14:12 12,8 C 13,3 C 11,7 C 91 % 1001,8 hPa 0,0 l/m 0 min 0 min 250 W/m 25,7 km/h (4 Bft) 97,83 %
15.03.2019 14:14 12,8 C 13,3 C 11,7 C 91 % 1001,7 hPa 0,0 l/m 0 min 0 min 229 W/m 25,7 km/h (4 Bft) 100,00 %
15.03.2019 14:16 12,8 C 12,8 C 11,1 C 91 % 1001,6 hPa 0,0 l/m 0 min 0 min 133 W/m 29,0 km/h (5 Bft) 100,00 %
15.03.2019 14:18 12,8 C 12,8 C 11,1 C 91 % 1001,8 hPa 0,0 l/m 0 min 0 min 103 W/m 22,5 km/h (4 Bft) 100,00 %
15.03.2019 14:20 12,7 C 12,2 C 10,6 C 90 % 1001,7 hPa 0,0 l/m 0 min 0 min 100 W/m 25,7 km/h (4 Bft) 100,00 %
15.03.2019 14:22 12,7 C 12,2 C 10,6 C 90 % 1001,8 hPa 0,0 l/m 0 min 0 min 89 W/m 25,7 km/h (4 Bft) 100,00 %
15.03.2019 14:24 12,7 C 12,2 C 10,6 C 90 % 1001,7 hPa 0,0 l/m 0 min 0 min 96 W/m 29,0 km/h (5 Bft) 100,00 %
15.03.2019 14:26 12,7 C 12,2 C 10,6 C 90 % 1001,7 hPa 0,0 l/m 0 min 0 min 79 W/m 29,0 km/h (5 Bft) 98,31 %
15.03.2019 14:28 12,6 C 12,2 C 10,6 C 90 % 1001,7 hPa 0,0 l/m 0 min 0 min 74 W/m 38,6 km/h (5 Bft) 100,00 %
15.03.2019 14:30 12,6 C 12,2 C 10,6 C 89 % 1001,8 hPa 0,0 l/m 0 min 0 min 64 W/m 25,7 km/h (4 Bft) 97,87 %
15.03.2019 14:32 12,6 C 12,2 C 10,6 C 89 % 1001,8 hPa 0,0 l/m 0 min 0 min 72 W/m 25,7 km/h (4 Bft) 100,00 %
15.03.2019 14:34 12,5 C 12,2 C 10,6 C 89 % 1001,7 hPa 0,0 l/m 0 min 0 min 77 W/m 19,3 km/h (3 Bft) 100,00 %
15.03.2019 14:36 12,5 C 12,2 C 10,6 C 90 % 1001,6 hPa 0,0 l/m 0 min 2 min 64 W/m 22,5 km/h (4 Bft) 100,00 %
15.03.2019 14:38 12,5 C 12,2 C 10,6 C 89 % 1001,6 hPa 0,0 l/m 0 min 0 min 62 W/m 29,0 km/h (5 Bft) 100,00 %
15.03.2019 14:40 12,4 C 12,2 C 10,6 C 89 % 1001,7 hPa 0,0 l/m 0 min 0 min 55 W/m 22,5 km/h (4 Bft) 100,00 %
15.03.2019 14:42 12,4 C 12,2 C 10,6 C 89 % 1001,7 hPa 0,0 l/m 0 min 0 min 57 W/m 22,5 km/h (4 Bft) 100,00 %
15.03.2019 14:44 12,4 C 12,2 C 10,6 C 89 % 1001,6 hPa 0,0 l/m 0 min 0 min 69 W/m 25,7 km/h (4 Bft) 98,28 %
15.03.2019 14:46 12,4 C 11,7 C 10,6 C 89 % 1001,7 hPa 0,0 l/m 0 min 0 min 62 W/m 16,1 km/h (3 Bft) 100,00 %
15.03.2019 14:48 12,4 C 11,7 C 10,6 C 89 % 1001,6 hPa 0,0 l/m 0 min 0 min 61 W/m 16,1 km/h (3 Bft) 100,00 %
15.03.2019 14:50 12,3 C 11,7 C 10,6 C 89 % 1001,7 hPa 0,0 l/m 0 min 0 min 57 W/m 25,7 km/h (4 Bft) 98,31 %
15.03.2019 14:52 12,3 C 12,2 C 10,6 C 89 % 1001,6 hPa 0,0 l/m 0 min 0 min 73 W/m 22,5 km/h (4 Bft) 100,00 %
15.03.2019 14:54 12,3 C 12,2 C 10,6 C 89 % 1001,7 hPa 0,0 l/m 0 min 0 min 86 W/m 22,5 km/h (4 Bft) 100,00 %
15.03.2019 14:56 12,3 C 12,2 C 10,6 C 89 % 1001,6 hPa 0,0 l/m 0 min 0 min 90 W/m 25,7 km/h (4 Bft) 100,00 %
15.03.2019 14:58 12,3 C 12,2 C 11,1 C 89 % 1001,6 hPa 0,0 l/m 0 min 0 min 110 W/m 38,6 km/h (5 Bft) 100,00 %
15.03.2019 15:00 12,3 C 12,2 C 11,7 C 89 % 1001,6 hPa 0,0 l/m 0 min 0 min 123 W/m 25,7 km/h (4 Bft) 100,00 %
15.03.2019 15:02 12,3 C 12,2 C 11,1 C 89 % 1001,6 hPa 0,0 l/m 0 min 0 min 108 W/m 25,7 km/h (4 Bft) 94,92 %
15.03.2019 15:04 12,3 C 12,2 C 11,1 C 90 % 1001,5 hPa 0,0 l/m 0 min 0 min 100 W/m 19,3 km/h (3 Bft) 97,87 %
15.03.2019 15:06 12,3 C 12,2 C 11,7 C 90 % 1001,6 hPa 0,0 l/m 0 min 0 min 114 W/m 16,1 km/h (3 Bft) 97,87 %
15.03.2019 15:08 12,3 C 12,2 C 11,7 C 90 % 1001,5 hPa 0,0 l/m 0 min 0 min 142 W/m 22,5 km/h (4 Bft) 97,83 %
15.03.2019 15:10 12,3 C 12,2 C 11,7 C 90 % 1001,5 hPa 0,0 l/m 0 min 0 min 138 W/m 19,3 km/h (3 Bft) 97,14 %
15.03.2019 15:12 12,3 C 12,2 C 11,7 C 90 % 1001,5 hPa 0,0 l/m 0 min 0 min 106 W/m 19,3 km/h (3 Bft) 97,87 %
15.03.2019 15:14 12,4 C 12,2 C 11,7 C 90 % 1001,4 hPa 0,0 l/m 0 min 0 min 100 W/m 29,0 km/h (5 Bft) 97,87 %
15.03.2019 15:16 12,4 C 12,2 C 11,7 C 90 % 1001,6 hPa 0,0 l/m 0 min 0 min 97 W/m 32,2 km/h (5 Bft) 97,87 %
15.03.2019 15:18 12,4 C 12,2 C 11,7 C 90 % 1001,6 hPa 0,0 l/m 0 min 0 min 68 W/m 25,7 km/h (4 Bft) 95,74 %
15.03.2019 15:20 12,4 C 12,2 C 11,7 C 89 % 1001,6 hPa 0,0 l/m 0 min 0 min 65 W/m 19,3 km/h (3 Bft) 95,74 %
15.03.2019 15:22 12,4 C 12,2 C 11,7 C 89 % 1001,4 hPa 0,0 l/m 0 min 0 min 57 W/m 22,5 km/h (4 Bft) 96,55 %
15.03.2019 15:24 12,4 C 12,2 C 11,7 C 89 % 1001,4 hPa 0,0 l/m 0 min 0 min 54 W/m 38,6 km/h (5 Bft) 97,14 %
15.03.2019 15:26 12,4 C 12,2 C 11,7 C 89 % 1001,4 hPa 0,0 l/m 0 min 0 min 61 W/m 29,0 km/h (5 Bft) 97,87 %
15.03.2019 15:28 12,4 C 12,2 C 11,7 C 89 % 1001,4 hPa 0,0 l/m 0 min 0 min 105 W/m 29,0 km/h (5 Bft) 97,87 %
15.03.2019 15:30 12,4 C 12,2 C 11,7 C 89 % 1001,4 hPa 0,0 l/m 0 min 0 min 121 W/m 25,7 km/h (4 Bft) 93,62 %
15.03.2019 15:32 12,5 C 12,2 C 11,7 C 89 % 1001,6 hPa 0,0 l/m 0 min 0 min 111 W/m 22,5 km/h (4 Bft) 96,55 %
15.03.2019 15:34 12,5 C 12,2 C 11,7 C 89 % 1001,5 hPa 0,0 l/m 0 min 0 min 111 W/m 25,7 km/h (4 Bft) 97,14 %
15.03.2019 15:36 12,5 C 12,2 C 11,7 C 89 % 1001,5 hPa 0,0 l/m 0 min 0 min 95 W/m 22,5 km/h (4 Bft) 98,31 %
15.03.2019 15:38 12,5 C 12,2 C 11,7 C 89 % 1001,5 hPa 0,0 l/m 0 min 0 min 71 W/m 25,7 km/h (4 Bft) 97,87 %
15.03.2019 15:40 12,6 C 12,2 C 11,7 C 89 % 1001,6 hPa 0,0 l/m 0 min 0 min 62 W/m 32,2 km/h (5 Bft) 91,49 %
15.03.2019 15:42 12,6 C 12,2 C 11,7 C 88 % 1001,5 hPa 0,0 l/m 0 min 0 min 52 W/m 22,5 km/h (4 Bft) 97,14 %
15.03.2019 15:44 12,6 C 12,2 C 11,7 C 88 % 1001,7 hPa 0,0 l/m 0 min 0 min 40 W/m 16,1 km/h (3 Bft) 91,49 %
15.03.2019 15:46 12,6 C 12,2 C 11,7 C 88 % 1001,6 hPa 0,0 l/m 0 min 2 min 44 W/m 22,5 km/h (4 Bft) 91,30 %
15.03.2019 15:48 12,6 C 12,2 C 11,1 C 88 % 1001,6 hPa 0,0 l/m 0 min 2 min 54 W/m 29,0 km/h (5 Bft) 93,62 %
15.03.2019 15:50 12,6 C 12,2 C 11,1 C 88 % 1001,5 hPa 0,0 l/m 0 min 0 min 56 W/m 22,5 km/h (4 Bft) 91,49 %
15.03.2019 15:52 12,6 C 12,2 C 11,1 C 88 % 1001,6 hPa 0,0 l/m 0 min 0 min 55 W/m 35,4 km/h (5 Bft) 93,22 %
15.03.2019 15:54 12,6 C 12,2 C 11,1 C 88 % 1001,8 hPa 0,0 l/m 0 min 0 min 52 W/m 25,7 km/h (4 Bft) 94,29 %
15.03.2019 15:56 12,6 C 12,2 C 11,7 C 88 % 1001,6 hPa 0,0 l/m 0 min 0 min 53 W/m 29,0 km/h (5 Bft) 95,74 %
15.03.2019 15:58 12,6 C 12,2 C 11,1 C 88 % 1001,6 hPa 0,0 l/m 0 min 2 min 47 W/m 29,0 km/h (5 Bft) 93,48 %
15.03.2019 16:00 12,6 C 12,2 C 11,1 C 88 % 1001,7 hPa 0,0 l/m 0 min 2 min 38 W/m 12,9 km/h (3 Bft) 91,53 %
15.03.2019 16:02 12,6 C 11,7 C 11,1 C 88 % 1001,8 hPa 0,0 l/m 0 min 2 min 43 W/m 22,5 km/h (4 Bft) 97,14 %
15.03.2019 16:04 12,5 C 11,7 C 11,1 C 88 % 1001,7 hPa 0,0 l/m 0 min 2 min 40 W/m 35,4 km/h (5 Bft) 93,62 %
15.03.2019 16:06 12,5 C 11,7 C 11,1 C 89 % 1001,6 hPa 0,0 l/m 0 min 2 min 32 W/m 38,6 km/h (5 Bft) 93,10 %
15.03.2019 16:08 12,5 C 11,7 C 11,1 C 89 % 1001,7 hPa 0,0 l/m 0 min 2 min 31 W/m 51,5 km/h (7 Bft) 93,62 %
15.03.2019 16:10 12,4 C 11,7 C 11,1 C 88 % 1001,5 hPa 0,0 l/m 0 min 0 min 21 W/m 41,8 km/h (6 Bft) 94,29 %
15.03.2019 16:12 12,4 C 12,2 C 11,1 C 88 % 1001,4 hPa 0,0 l/m 0 min 0 min 22 W/m 32,2 km/h (5 Bft) 95,74 %
15.03.2019 16:14 12,4 C 12,2 C 11,1 C 88 % 1001,4 hPa 0,0 l/m 0 min 2 min 33 W/m 22,5 km/h (4 Bft) 95,74 %
15.03.2019 16:16 12,4 C 12,2 C 11,1 C 88 % 1001,5 hPa 0,0 l/m 0 min 2 min 33 W/m 25,7 km/h (4 Bft) 95,74 %
15.03.2019 16:18 12,4 C 11,7 C 11,1 C 88 % 1001,6 hPa 0,0 l/m 0 min 0 min 29 W/m 19,3 km/h (3 Bft) 95,74 %
15.03.2019 16:20 12,4 C 11,7 C 11,1 C 88 % 1001,5 hPa 0,0 l/m 0 min 0 min 24 W/m 22,5 km/h (4 Bft) 93,62 %
15.03.2019 16:22 12,4 C 11,7 C 11,1 C 88 % 1001,4 hPa 0,0 l/m 0 min 0 min 24 W/m 32,2 km/h (5 Bft) 97,83 %
15.03.2019 16:24 12,4 C 11,7 C 11,1 C 88 % 1001,5 hPa 0,0 l/m 0 min 0 min 26 W/m 32,2 km/h (5 Bft) 95,74 %
15.03.2019 16:26 12,4 C 11,7 C 11,1 C 88 % 1001,4 hPa 0,0 l/m 0 min 0 min 27 W/m 38,6 km/h (5 Bft) 97,87 %
15.03.2019 16:28 12,4 C 11,7 C 11,1 C 89 % 1001,6 hPa 0,0 l/m 0 min 0 min 32 W/m 29,0 km/h (5 Bft) 95,74 %
15.03.2019 16:30 12,4 C 11,7 C 11,1 C 88 % 1001,5 hPa 0,0 l/m 0 min 0 min 30 W/m 29,0 km/h (5 Bft) 97,87 %
15.03.2019 16:32 12,3 C 11,7 C 10,6 C 89 % 1001,6 hPa 0,0 l/m 0 min 2 min 31 W/m 25,7 km/h (4 Bft) 97,83 %
15.03.2019 16:34 12,3 C 11,1 C 10,6 C 89 % 1001,5 hPa 0,0 l/m 0 min 2 min 29 W/m 29,0 km/h (5 Bft) 97,87 %
15.03.2019 16:36 12,3 C 10,6 C 10,0 C 89 % 1001,6 hPa 0,0 l/m 0 min 2 min 28 W/m 25,7 km/h (4 Bft) 96,61 %
15.03.2019 16:38 12,3 C 10,6 C 10,0 C 90 % 1001,6 hPa 0,0 l/m 0 min 2 min 22 W/m 29,0 km/h (5 Bft) 95,74 %
15.03.2019 16:40 12,2 C 10,6 C 10,0 C 90 % 1001,7 hPa 0,0 l/m 0 min 2 min 23 W/m 32,2 km/h (5 Bft) 100,00 %
15.03.2019 16:42 12,2 C 10,0 C 10,0 C 90 % 1001,7 hPa 0,0 l/m 0 min 2 min 25 W/m 16,1 km/h (3 Bft) 100,00 %
15.03.2019 16:44 12,1 C 10,0 C 9,4 C 90 % 1001,8 hPa 0,2 l/m 0 min 2 min 25 W/m 29,0 km/h (5 Bft) 97,83 %
15.03.2019 16:46 12,1 C 10,0 C 9,4 C 91 % 1001,6 hPa 0,0 l/m 0 min 2 min 27 W/m 22,5 km/h (4 Bft) 97,87 %
15.03.2019 16:48 12,0 C 10,0 C 9,4 C 91 % 1001,6 hPa 0,0 l/m 0 min 2 min 28 W/m 22,5 km/h (4 Bft) 100,00 %
15.03.2019 16:50 11,9 C 10,0 C 9,4 C 91 % 1001,5 hPa 0,2 l/m 0 min 2 min 30 W/m 22,5 km/h (4 Bft) 100,00 %
15.03.2019 16:52 11,9 C 10,0 C 9,4 C 92 % 1001,6 hPa 0,0 l/m 0 min 2 min 32 W/m 16,1 km/h (3 Bft) 100,00 %
15.03.2019 16:54 11,9 C 10,0 C 9,4 C 92 % 1001,6 hPa 0,0 l/m 0 min 2 min 26 W/m 32,2 km/h (5 Bft) 100,00 %
15.03.2019 16:56 11,8 C 10,0 C 9,4 C 92 % 1001,6 hPa 0,0 l/m 0 min 2 min 22 W/m 32,2 km/h (5 Bft) 100,00 %
15.03.2019 16:58 11,7 C 10,0 C 9,4 C 92 % 1001,6 hPa 0,0 l/m 0 min 2 min 21 W/m 29,0 km/h (5 Bft) 100,00 %
15.03.2019 17:00 11,7 C 10,0 C 9,4 C 92 % 1001,7 hPa 0,0 l/m 0 min 2 min 17 W/m 19,3 km/h (3 Bft) 100,00 %
15.03.2019 17:02 11,7 C 10,0 C 9,4 C 93 % 1001,6 hPa 0,0 l/m 0 min 2 min 11 W/m 16,1 km/h (3 Bft) 100,00 %
15.03.2019 17:04 11,6 C 10,0 C 9,4 C 93 % 1001,6 hPa 0,0 l/m 0 min 2 min 13 W/m 29,0 km/h (5 Bft) 100,00 %
15.03.2019 17:06 11,6 C 10,0 C 9,4 C 93 % 1001,7 hPa 0,0 l/m 0 min 2 min 13 W/m 19,3 km/h (3 Bft) 98,28 %
15.03.2019 17:08 11,6 C 10,0 C 9,4 C 93 % 1001,7 hPa 0,2 l/m 0 min 2 min 14 W/m 22,5 km/h (4 Bft) 100,00 %
15.03.2019 17:10 11,5 C 10,0 C 9,4 C 93 % 1001,7 hPa 0,0 l/m 0 min 2 min 15 W/m 22,5 km/h (4 Bft) 100,00 %
15.03.2019 17:12 11,5 C 10,0 C 9,4 C 94 % 1001,8 hPa 0,0 l/m 0 min 2 min 19 W/m 22,5 km/h (4 Bft) 100,00 %
15.03.2019 17:14 11,4 C 10,0 C 9,4 C 94 % 1001,6 hPa 0,0 l/m 0 min 2 min 18 W/m 16,1 km/h (3 Bft) 97,87 %
15.03.2019 17:16 11,4 C 10,0 C 9,4 C 94 % 1001,6 hPa 0,0 l/m 0 min 2 min 21 W/m 25,7 km/h (4 Bft) 100,00 %
15.03.2019 17:18 11,4 C 10,0 C 9,4 C 94 % 1001,8 hPa 0,0 l/m 0 min 2 min 20 W/m 29,0 km/h (5 Bft) 97,87 %
15.03.2019 17:20 11,4 C 10,0 C 9,4 C 94 % 1001,7 hPa 0,0 l/m 0 min 2 min 25 W/m 35,4 km/h (5 Bft) 100,00 %
15.03.2019 17:22 11,4 C 10,0 C 9,4 C 94 % 1001,6 hPa 0,2 l/m 0 min 2 min 28 W/m 22,5 km/h (4 Bft) 100,00 %
15.03.2019 17:24 11,3 C 10,0 C 9,4 C 94 % 1001,5 hPa 0,0 l/m 0 min 2 min 32 W/m 22,5 km/h (4 Bft) 100,00 %
15.03.2019 17:26 11,3 C 10,0 C 9,4 C 95 % 1001,5 hPa 0,0 l/m 0 min 2 min 33 W/m 16,1 km/h (3 Bft) 100,00 %
15.03.2019 17:28 11,3 C 10,0 C 9,4 C 95 % 1001,5 hPa 0,0 l/m 0 min 2 min 33 W/m 35,4 km/h (5 Bft) 100,00 %
15.03.2019 17:30 11,3 C 10,0 C 9,4 C 95 % 1001,5 hPa 0,0 l/m 0 min 2 min 21 W/m 19,3 km/h (3 Bft) 100,00 %
15.03.2019 17:32 11,3 C 10,0 C 9,4 C 95 % 1001,6 hPa 0,0 l/m 0 min 2 min 18 W/m 22,5 km/h (4 Bft) 100,00 %
15.03.2019 17:34 11,3 C 10,0 C 9,4 C 95 % 1001,6 hPa 0,0 l/m 0 min 2 min 12 W/m 29,0 km/h (5 Bft) 100,00 %
15.03.2019 17:36 11,3 C 10,0 C 9,4 C 95 % 1001,4 hPa 0,0 l/m 0 min 2 min 13 W/m 22,5 km/h (4 Bft) 100,00 %
15.03.2019 17:38 11,3 C 10,0 C 9,4 C 95 % 1001,4 hPa 0,0 l/m 0 min 2 min 14 W/m 22,5 km/h (4 Bft) 100,00 %
15.03.2019 17:40 11,2 C 10,0 C 9,4 C 95 % 1001,4 hPa 0,0 l/m 0 min 2 min 13 W/m 19,3 km/h (3 Bft) 100,00 %
15.03.2019 17:42 11,2 C 10,0 C 9,4 C 95 % 1001,4 hPa 0,2 l/m 0 min 2 min 14 W/m 32,2 km/h (5 Bft) 97,87 %
15.03.2019 17:44 11,2 C 10,0 C 9,4 C 95 % 1001,6 hPa 0,0 l/m 0 min 2 min 18 W/m 22,5 km/h (4 Bft) 100,00 %
15.03.2019 17:46 11,2 C 10,0 C 9,4 C 95 % 1001,6 hPa 0,0 l/m 0 min 2 min 13 W/m 19,3 km/h (3 Bft) 100,00 %
15.03.2019 17:48 11,2 C 10,0 C 9,4 C 95 % 1001,5 hPa 0,0 l/m 0 min 2 min 10 W/m 22,5 km/h (4 Bft) 100,00 %
15.03.2019 17:50 11,2 C 10,0 C 9,4 C 95 % 1001,6 hPa 0,0 l/m 0 min 2 min 13 W/m 25,7 km/h (4 Bft) 100,00 %
15.03.2019 17:52 11,2 C 10,0 C 9,4 C 95 % 1001,6 hPa 0,0 l/m 0 min 2 min 18 W/m 29,0 km/h (5 Bft) 100,00 %
15.03.2019 17:54 11,2 C 10,0 C 9,4 C 95 % 1001,6 hPa 0,0 l/m 0 min 2 min 19 W/m 25,7 km/h (4 Bft) 97,87 %
15.03.2019 17:56 11,2 C 10,0 C 9,4 C 96 % 1001,7 hPa 0,0 l/m 0 min 2 min 17 W/m 22,5 km/h (4 Bft) 100,00 %
15.03.2019 17:58 11,2 C 10,0 C 9,4 C 96 % 1001,7 hPa 0,0 l/m 0 min 2 min 13 W/m 35,4 km/h (5 Bft) 100,00 %
15.03.2019 18:00 11,2 C 10,0 C 9,4 C 96 % 1001,7 hPa 0,0 l/m 0 min 2 min 11 W/m 29,0 km/h (5 Bft) 100,00 %
15.03.2019 18:02 11,2 C 10,0 C 9,4 C 96 % 1001,8 hPa 0,0 l/m 0 min 2 min 8 W/m 19,3 km/h (3 Bft) 100,00 %
15.03.2019 18:04 11,2 C 10,0 C 9,4 C 96 % 1001,8 hPa 0,0 l/m 0 min 2 min 8 W/m 22,5 km/h (4 Bft) 100,00 %
15.03.2019 18:07 11,2 C 10,0 C 9,4 C 96 % 1001,9 hPa 0,0 l/m 0 min 3 min 7 W/m 22,5 km/h (4 Bft) 96,34 %
15.03.2019 18:08 11,2 C 10,0 C 9,4 C 96 % 1001,9 hPa 0,2 l/m 0 min 1 min 5 W/m 16,1 km/h (3 Bft) 100,00 %
15.03.2019 18:10 11,2 C 10,0 C 9,4 C 96 % 1001,9 hPa 0,0 l/m 0 min 2 min 5 W/m 19,3 km/h (3 Bft) 95,74 %
15.03.2019 18:12 11,2 C 10,0 C 9,4 C 96 % 1001,9 hPa 0,0 l/m 0 min 2 min 5 W/m 19,3 km/h (3 Bft) 95,74 %
15.03.2019 18:14 11,2 C 10,0 C 9,4 C 96 % 1002,0 hPa 0,0 l/m 0 min 2 min 1 W/m 22,5 km/h (4 Bft) 95,74 %
15.03.2019 18:16 11,1 C 10,0 C 9,4 C 96 % 1002,0 hPa 0,0 l/m 0 min 2 min 0 W/m 16,1 km/h (3 Bft) 95,74 %
15.03.2019 18:18 11,1 C 10,0 C 9,4 C 96 % 1002,1 hPa 0,2 l/m 0 min 2 min 0 W/m 12,9 km/h (3 Bft) 95,65 %
15.03.2019 18:20 11,1 C 10,0 C 9,4 C 96 % 1002,1 hPa 0,2 l/m 0 min 2 min 0 W/m 22,5 km/h (4 Bft) 95,74 %
15.03.2019 18:22 11,1 C 10,0 C 9,4 C 96 % 1002,0 hPa 0,0 l/m 0 min 2 min 0 W/m 35,4 km/h (5 Bft) 91,49 %
15.03.2019 18:24 11,1 C 10,0 C 9,4 C 96 % 1002,1 hPa 0,0 l/m 0 min 2 min 0 W/m 19,3 km/h (3 Bft) 95,74 %
15.03.2019 18:26 11,1 C 10,0 C 9,4 C 96 % 1002,1 hPa 0,0 l/m 0 min 2 min 0 W/m 9,7 km/h (2 Bft) 95,74 %
15.03.2019 18:28 11,1 C 10,0 C 9,4 C 96 % 1002,2 hPa 0,2 l/m 0 min 2 min 0 W/m 16,1 km/h (3 Bft) 95,74 %
15.03.2019 18:30 11,1 C 10,0 C 9,4 C 96 % 1002,2 hPa 0,0 l/m 0 min 2 min 0 W/m 19,3 km/h (3 Bft) 95,65 %
15.03.2019 18:32 11,1 C 10,0 C 9,4 C 96 % 1002,4 hPa 0,0 l/m 0 min 2 min 0 W/m 25,7 km/h (4 Bft) 95,74 %
15.03.2019 18:34 11,1 C 10,0 C 9,4 C 96 % 1002,6 hPa 0,0 l/m 0 min 2 min 0 W/m 22,5 km/h (4 Bft) 95,74 %
15.03.2019 18:36 11,1 C 10,0 C 9,4 C 96 % 1002,7 hPa 0,2 l/m 0 min 2 min 0 W/m 22,5 km/h (4 Bft) 91,53 %
15.03.2019 18:38 11,0 C 10,0 C 9,4 C 96 % 1002,7 hPa 0,0 l/m 0 min 2 min 0 W/m 19,3 km/h (3 Bft) 97,14 %
15.03.2019 18:40 11,0 C 10,0 C 9,4 C 96 % 1002,7 hPa 0,2 l/m 0 min 2 min 0 W/m 12,9 km/h (3 Bft) 93,62 %
15.03.2019 18:42 11,0 C 10,0 C 9,4 C 96 % 1002,7 hPa 0,0 l/m 0 min 2 min 0 W/m 22,5 km/h (4 Bft) 93,48 %
15.03.2019 18:44 11,0 C 10,0 C 9,4 C 96 % 1002,6 hPa 0,0 l/m 0 min 2 min 0 W/m 16,1 km/h (3 Bft) 95,74 %
15.03.2019 18:46 11,0 C 10,0 C 9,4 C 96 % 1002,8 hPa 0,0 l/m 0 min 2 min 0 W/m 22,5 km/h (4 Bft) 93,62 %
15.03.2019 18:48 10,9 C 10,0 C 9,4 C 96 % 1002,8 hPa 0,0 l/m 0 min 2 min 0 W/m 16,1 km/h (3 Bft) 95,74 %
15.03.2019 18:50 10,9 C 10,0 C 9,4 C 96 % 1002,8 hPa 0,0 l/m 0 min 2 min 0 W/m 16,1 km/h (3 Bft) 95,74 %
15.03.2019 18:52 10,9 C 10,0 C 9,4 C 96 % 1002,8 hPa 0,2 l/m 0 min 2 min 0 W/m 16,1 km/h (3 Bft) 91,49 %
15.03.2019 18:54 10,9 C 10,0 C 9,4 C 97 % 1002,8 hPa 0,0 l/m 0 min 2 min 0 W/m 12,9 km/h (3 Bft) 95,65 %
15.03.2019 18:56 10,9 C 10,0 C 9,4 C 97 % 1002,8 hPa 0,0 l/m 0 min 2 min 0 W/m 19,3 km/h (3 Bft) 95,74 %
15.03.2019 18:58 10,9 C 10,0 C 9,4 C 97 % 1002,8 hPa 0,0 l/m 0 min 2 min 0 W/m 25,7 km/h (4 Bft) 97,87 %
15.03.2019 19:00 10,9 C 9,4 C 9,4 C 97 % 1002,9 hPa 0,0 l/m 0 min 2 min 0 W/m 12,9 km/h (3 Bft) 93,62 %
15.03.2019 19:02 10,9 C 9,4 C 9,4 C 97 % 1003,0 hPa 0,0 l/m 0 min 2 min 0 W/m 12,9 km/h (3 Bft) 95,74 %
15.03.2019 19:04 10,8 C 9,4 C 9,4 C 97 % 1003,0 hPa 0,2 l/m 0 min 2 min 0 W/m 22,5 km/h (4 Bft) 97,87 %
15.03.2019 19:06 10,8 C 9,4 C 9,4 C 97 % 1003,1 hPa 0,0 l/m 0 min 2 min 0 W/m 25,7 km/h (4 Bft) 91,30 %
15.03.2019 19:08 10,8 C 9,4 C 9,4 C 97 % 1003,1 hPa 0,0 l/m 0 min 2 min 0 W/m 16,1 km/h (3 Bft) 97,87 %
15.03.2019 19:10 10,8 C 9,4 C 9,4 C 97 % 1003,0 hPa 0,0 l/m 0 min 2 min 0 W/m 9,7 km/h (2 Bft) 95,74 %
15.03.2019 19:12 10,8 C 9,4 C 9,4 C 97 % 1003,1 hPa 0,0 l/m 0 min 2 min 0 W/m 12,9 km/h (3 Bft) 97,87 %
15.03.2019 19:14 10,8 C 9,4 C 9,4 C 97 % 1003,1 hPa 0,0 l/m 0 min 2 min 0 W/m 9,7 km/h (2 Bft) 95,74 %
15.03.2019 19:16 10,8 C 9,4 C 8,9 C 97 % 1003,2 hPa 0,0 l/m 0 min 2 min 0 W/m 25,7 km/h (4 Bft) 97,83 %
15.03.2019 19:18 10,8 C 9,4 C 8,9 C 97 % 1003,3 hPa 0,0 l/m 0 min 2 min 0 W/m 29,0 km/h (5 Bft) 97,87 %
15.03.2019 19:20 10,7 C 9,4 C 8,9 C 97 % 1003,4 hPa 0,0 l/m 0 min 2 min 0 W/m 16,1 km/h (3 Bft) 97,87 %
15.03.2019 19:22 10,7 C 9,4 C 9,4 C 97 % 1003,4 hPa 0,0 l/m 0 min 2 min 0 W/m 25,7 km/h (4 Bft) 97,87 %
15.03.2019 19:24 10,7 C 9,4 C 8,9 C 97 % 1003,4 hPa 0,0 l/m 0 min 2 min 0 W/m 9,7 km/h (2 Bft) 97,87 %
15.03.2019 19:26 10,7 C 9,4 C 8,9 C 97 % 1003,4 hPa 0,0 l/m 0 min 2 min 0 W/m 22,5 km/h (4 Bft) 97,87 %
15.03.2019 19:28 10,7 C 9,4 C 8,9 C 97 % 1003,4 hPa 0,0 l/m 0 min 2 min 0 W/m 22,5 km/h (4 Bft) 97,87 %
15.03.2019 19:30 10,7 C 9,4 C 8,9 C 97 % 1003,4 hPa 0,0 l/m 0 min 2 min 0 W/m 19,3 km/h (3 Bft) 97,83 %
15.03.2019 19:32 10,7 C 9,4 C 8,9 C 97 % 1003,5 hPa 0,0 l/m 0 min 2 min 0 W/m 25,7 km/h (4 Bft) 97,87 %
15.03.2019 19:34 10,6 C 9,4 C 8,9 C 97 % 1003,6 hPa 0,0 l/m 0 min 2 min 0 W/m 35,4 km/h (5 Bft) 97,87 %
15.03.2019 19:36 10,6 C 9,4 C 8,9 C 97 % 1003,6 hPa 0,0 l/m 0 min 2 min 0 W/m 12,9 km/h (3 Bft) 97,87 %
15.03.2019 19:38 10,6 C 9,4 C 8,9 C 97 % 1003,6 hPa 0,0 l/m 0 min 2 min 0 W/m 19,3 km/h (3 Bft) 95,74 %
15.03.2019 19:40 10,6 C 9,4 C 8,9 C 97 % 1003,7 hPa 0,0 l/m 0 min 2 min 0 W/m 25,7 km/h (4 Bft) 93,48 %
15.03.2019 19:42 10,6 C 9,4 C 8,9 C 97 % 1003,9 hPa 0,2 l/m 0 min 2 min 0 W/m 22,5 km/h (4 Bft) 97,87 %
15.03.2019 19:44 10,5 C 8,9 C 8,9 C 97 % 1004,1 hPa 0,0 l/m 0 min 2 min 0 W/m 38,6 km/h (5 Bft) 97,87 %
15.03.2019 19:46 10,3 C 8,3 C 7,8 C 97 % 1004,1 hPa 0,2 l/m 0 min 2 min 0 W/m 32,2 km/h (5 Bft) 97,87 %
15.03.2019 19:48 10,1 C 7,8 C 7,8 C 96 % 1004,2 hPa 0,2 l/m 0 min 2 min 0 W/m 38,6 km/h (5 Bft) 97,87 %
15.03.2019 19:50 9,8 C 7,8 C 7,2 C 96 % 1004,3 hPa 0,0 l/m 0 min 2 min 0 W/m 35,4 km/h (5 Bft) 97,87 %
15.03.2019 19:52 9,6 C 7,2 C 7,2 C 96 % 1004,2 hPa 0,2 l/m 0 min 2 min 0 W/m 38,6 km/h (5 Bft) 100,00 %
15.03.2019 19:54 9,3 C 7,2 C 7,2 C 96 % 1004,2 hPa 0,0 l/m 0 min 2 min 0 W/m 35,4 km/h (5 Bft) 97,87 %
15.03.2019 19:56 9,2 C 7,2 C 7,2 C 95 % 1004,4 hPa 0,0 l/m 0 min 2 min 0 W/m 45,1 km/h (6 Bft) 100,00 %
15.03.2019 19:58 9,0 C 7,2 C 6,7 C 95 % 1004,3 hPa 0,2 l/m 0 min 2 min 0 W/m 32,2 km/h (5 Bft) 100,00 %
15.03.2019 20:00 8,8 C 7,2 C 6,7 C 95 % 1004,5 hPa 0,0 l/m 0 min 2 min 0 W/m 22,5 km/h (4 Bft) 100,00 %
15.03.2019 20:02 8,7 C 7,2 C 6,7 C 95 % 1004,4 hPa 0,0 l/m 0 min 2 min 0 W/m 22,5 km/h (4 Bft) 100,00 %
15.03.2019 20:04 8,7 C 7,2 C 6,7 C 95 % 1004,5 hPa 0,0 l/m 0 min 2 min 0 W/m 22,5 km/h (4 Bft) 97,83 %
15.03.2019 20:06 8,6 C 6,7 C 6,7 C 95 % 1004,3 hPa 0,0 l/m 0 min 2 min 0 W/m 32,2 km/h (5 Bft) 100,00 %
15.03.2019 20:08 8,5 C 7,2 C 6,7 C 95 % 1004,4 hPa 0,0 l/m 0 min 2 min 0 W/m 12,9 km/h (3 Bft) 100,00 %
15.03.2019 20:10 8,4 C 6,7 C 6,7 C 95 % 1004,4 hPa 0,0 l/m 0 min 2 min 0 W/m 19,3 km/h (3 Bft) 97,87 %
15.03.2019 20:12 8,4 C 6,7 C 6,7 C 95 % 1004,4 hPa 0,0 l/m 0 min 2 min 0 W/m 16,1 km/h (3 Bft) 97,87 %
15.03.2019 20:14 8,3 C 6,7 C 6,7 C 95 % 1004,5 hPa 0,0 l/m 0 min 2 min 0 W/m 19,3 km/h (3 Bft) 100,00 %
15.03.2019 20:16 8,3 C 6,7 C 6,7 C 95 % 1004,6 hPa 0,0 l/m 0 min 0 min 0 W/m 12,9 km/h (3 Bft) 100,00 %
15.03.2019 20:18 8,3 C 6,7 C 6,7 C 95 % 1004,5 hPa 0,0 l/m 0 min 2 min 0 W/m 16,1 km/h (3 Bft) 100,00 %
15.03.2019 20:20 8,2 C 6,7 C 6,7 C 95 % 1004,6 hPa 0,0 l/m 0 min 0 min 0 W/m 25,7 km/h (4 Bft) 100,00 %
15.03.2019 20:22 8,2 C 6,7 C 6,7 C 95 % 1004,7 hPa 0,0 l/m 0 min 0 min 0 W/m 12,9 km/h (3 Bft) 100,00 %
15.03.2019 20:24 8,2 C 6,7 C 6,7 C 95 % 1004,7 hPa 0,0 l/m 0 min 0 min 0 W/m 19,3 km/h (3 Bft) 100,00 %
15.03.2019 20:26 8,2 C 6,7 C 6,7 C 95 % 1004,7 hPa 0,0 l/m 0 min 0 min 0 W/m 12,9 km/h (3 Bft) 97,83 %
15.03.2019 20:28 8,2 C 6,7 C 6,7 C 95 % 1004,7 hPa 0,0 l/m 0 min 0 min 0 W/m 19,3 km/h (3 Bft) 95,74 %
15.03.2019 20:30 8,2 C 6,7 C 6,7 C 95 % 1004,7 hPa 0,0 l/m 0 min 0 min 0 W/m 19,3 km/h (3 Bft) 100,00 %
15.03.2019 20:32 8,1 C 6,7 C 6,7 C 95 % 1004,8 hPa 0,0 l/m 0 min 0 min 0 W/m 19,3 km/h (3 Bft) 97,87 %
15.03.2019 20:34 8,1 C 6,7 C 6,7 C 95 % 1004,9 hPa 0,0 l/m 0 min 2 min 0 W/m 16,1 km/h (3 Bft) 100,00 %
15.03.2019 20:36 8,1 C 6,7 C 6,7 C 95 % 1004,9 hPa 0,0 l/m 0 min 2 min 0 W/m 19,3 km/h (3 Bft) 100,00 %
15.03.2019 20:38 8,1 C 6,7 C 6,7 C 95 % 1004,8 hPa 0,0 l/m 0 min 2 min 0 W/m 16,1 km/h (3 Bft) 100,00 %
15.03.2019 20:40 8,1 C 6,7 C 6,7 C 95 % 1004,8 hPa 0,0 l/m 0 min 2 min 0 W/m 12,9 km/h (3 Bft) 100,00 %
15.03.2019 20:42 8,1 C 6,7 C 6,7 C 95 % 1004,8 hPa 0,0 l/m 0 min 0 min 0 W/m 16,1 km/h (3 Bft) 100,00 %
15.03.2019 20:44 8,1 C 6,7 C 6,7 C 95 % 1005,0 hPa 0,0 l/m 0 min 2 min 0 W/m 16,1 km/h (3 Bft) 97,87 %
15.03.2019 20:46 8,1 C 6,7 C 6,7 C 95 % 1005,0 hPa 0,0 l/m 0 min 2 min 0 W/m 9,7 km/h (2 Bft) 95,74 %
15.03.2019 20:48 8,1 C 6,7 C 6,7 C 95 % 1005,0 hPa 0,0 l/m 0 min 2 min 0 W/m 9,7 km/h (2 Bft) 95,74 %
15.03.2019 20:50 8,1 C 6,7 C 6,7 C 95 % 1005,0 hPa 0,0 l/m 0 min 2 min 0 W/m 9,7 km/h (2 Bft) 97,83 %
15.03.2019 20:52 8,1 C 6,7 C 6,7 C 95 % 1005,0 hPa 0,0 l/m 0 min 2 min 0 W/m 12,9 km/h (3 Bft) 97,87 %
15.03.2019 20:54 8,1 C 6,7 C 6,7 C 95 % 1005,1 hPa 0,0 l/m 0 min 2 min 0 W/m 22,5 km/h (4 Bft) 97,87 %
15.03.2019 20:56 8,1 C 6,7 C 6,7 C 95 % 1005,1 hPa 0,0 l/m 0 min 2 min 0 W/m 19,3 km/h (3 Bft) 97,87 %
15.03.2019 20:58 8,1 C 6,7 C 6,7 C 95 % 1005,1 hPa 0,0 l/m 0 min 2 min 0 W/m 9,7 km/h (2 Bft) 95,74 %
15.03.2019 21:00 8,1 C 6,7 C 6,7 C 95 % 1005,2 hPa 0,0 l/m 0 min 2 min 0 W/m 16,1 km/h (3 Bft) 97,87 %
15.03.2019 21:02 8,1 C 6,7 C 6,7 C 95 % 1005,4 hPa 0,0 l/m 0 min 0 min 0 W/m 16,1 km/h (3 Bft) 95,65 %
15.03.2019 21:04 8,1 C 6,7 C 6,7 C 95 % 1005,6 hPa 0,0 l/m 0 min 0 min 0 W/m 16,1 km/h (3 Bft) 97,87 %
15.03.2019 21:06 8,1 C 6,7 C 6,7 C 95 % 1005,6 hPa 0,0 l/m 0 min 2 min 0 W/m 16,1 km/h (3 Bft) 97,87 %
15.03.2019 21:08 8,1 C 6,7 C 6,7 C 95 % 1005,6 hPa 0,0 l/m 0 min 2 min 0 W/m 12,9 km/h (3 Bft) 97,87 %
15.03.2019 21:10 8,1 C 6,7 C 6,7 C 95 % 1005,7 hPa 0,0 l/m 0 min 2 min 0 W/m 12,9 km/h (3 Bft) 97,87 %
15.03.2019 21:12 8,1 C 7,2 C 6,7 C 95 % 1005,7 hPa 0,0 l/m 0 min 2 min 0 W/m 12,9 km/h (3 Bft) 97,87 %
15.03.2019 21:14 8,1 C 7,2 C 6,7 C 95 % 1005,8 hPa 0,0 l/m 0 min 0 min 0 W/m 16,1 km/h (3 Bft) 97,83 %
15.03.2019 21:16 8,1 C 7,2 C 6,7 C 95 % 1005,8 hPa 0,0 l/m 0 min 2 min 0 W/m 12,9 km/h (3 Bft) 95,74 %
15.03.2019 21:18 8,1 C 7,2 C 6,7 C 95 % 1005,7 hPa 0,0 l/m 0 min 0 min 0 W/m 12,9 km/h (3 Bft) 97,87 %
15.03.2019 21:20 8,1 C 7,2 C 6,7 C 95 % 1005,6 hPa 0,0 l/m 0 min 0 min 0 W/m 12,9 km/h (3 Bft) 97,87 %
15.03.2019 21:22 8,1 C 7,2 C 6,7 C 95 % 1005,7 hPa 0,0 l/m 0 min 0 min 0 W/m 9,7 km/h (2 Bft) 97,87 %
15.03.2019 21:24 8,1 C 7,2 C 6,7 C 95 % 1005,7 hPa 0,0 l/m 0 min 2 min 0 W/m 9,7 km/h (2 Bft) 95,74 %
15.03.2019 21:26 8,1 C 7,2 C 6,7 C 95 % 1005,7 hPa 0,0 l/m 0 min 2 min 0 W/m 12,9 km/h (3 Bft) 97,83 %
15.03.2019 21:28 8,1 C 7,2 C 6,7 C 95 % 1005,7 hPa 0,0 l/m 0 min 2 min 0 W/m 9,7 km/h (2 Bft) 95,74 %
15.03.2019 21:30 8,1 C 7,2 C 6,7 C 95 % 1005,8 hPa 0,0 l/m 0 min 2 min 0 W/m 9,7 km/h (2 Bft) 97,87 %
15.03.2019 21:32 8,1 C 6,7 C 6,7 C 95 % 1005,9 hPa 0,2 l/m 0 min 2 min 0 W/m 12,9 km/h (3 Bft) 95,74 %
15.03.2019 21:34 8,1 C 6,7 C 6,7 C 95 % 1005,9 hPa 0,0 l/m 0 min 2 min 0 W/m 9,7 km/h (2 Bft) 93,62 %
15.03.2019 21:36 8,1 C 6,7 C 6,7 C 95 % 1005,9 hPa 0,0 l/m 0 min 2 min 0 W/m 6,4 km/h (2 Bft) 97,83 %
15.03.2019 21:38 8,1 C 6,7 C 6,7 C 95 % 1005,9 hPa 0,0 l/m 0 min 2 min 0 W/m 12,9 km/h (3 Bft) 97,87 %
15.03.2019 21:40 8,1 C 6,7 C 6,7 C 95 % 1005,9 hPa 0,0 l/m 0 min 2 min 0 W/m 9,7 km/h (2 Bft) 95,74 %
15.03.2019 21:42 8,1 C 6,7 C 6,7 C 95 % 1005,9 hPa 0,0 l/m 0 min 2 min 0 W/m 9,7 km/h (2 Bft) 93,62 %
15.03.2019 21:44 8,1 C 6,7 C 6,7 C 95 % 1005,9 hPa 0,0 l/m 0 min 2 min 0 W/m 16,1 km/h (3 Bft) 95,74 %
15.03.2019 21:46 8,1 C 6,7 C 6,7 C 95 % 1005,9 hPa 0,0 l/m 0 min 2 min 0 W/m 9,7 km/h (2 Bft) 93,62 %
15.03.2019 21:48 8,1 C 6,7 C 6,7 C 95 % 1005,9 hPa 0,0 l/m 0 min 0 min 0 W/m 6,4 km/h (2 Bft) 97,83 %
15.03.2019 21:50 8,1 C 6,7 C 6,7 C 95 % 1005,9 hPa 0,0 l/m 0 min 0 min 0 W/m 6,4 km/h (2 Bft) 95,74 %
15.03.2019 21:52 8,1 C 6,7 C 6,7 C 95 % 1006,0 hPa 0,0 l/m 0 min 2 min 0 W/m 9,7 km/h (2 Bft) 93,62 %
15.03.2019 21:54 8,1 C 6,7 C 6,7 C 95 % 1006,0 hPa 0,0 l/m 0 min 0 min 0 W/m 6,4 km/h (2 Bft) 95,74 %
15.03.2019 21:56 8,1 C 6,7 C 6,7 C 95 % 1006,0 hPa 0,0 l/m 0 min 0 min 0 W/m 6,4 km/h (2 Bft) 95,74 %
15.03.2019 21:58 8,1 C 6,7 C 6,7 C 95 % 1005,9 hPa 0,0 l/m 0 min 0 min 0 W/m 9,7 km/h (2 Bft) 93,62 %
15.03.2019 22:00 8,1 C 6,7 C 6,7 C 95 % 1005,8 hPa 0,0 l/m 0 min 0 min 0 W/m 6,4 km/h (2 Bft) 95,74 %
15.03.2019 22:02 8,1 C 6,7 C 6,7 C 95 % 1005,9 hPa 0,0 l/m 0 min 0 min 0 W/m 9,7 km/h (2 Bft) 93,48 %
15.03.2019 22:04 8,1 C 6,7 C 6,7 C 95 % 1005,9 hPa 0,0 l/m 0 min 0 min 0 W/m 6,4 km/h (2 Bft) 93,62 %
15.03.2019 22:06 8,1 C 6,7 C 6,7 C 95 % 1005,9 hPa 0,0 l/m 0 min 0 min 0 W/m 3,2 km/h (1 Bft) 95,74 %
15.03.2019 22:08 8,1 C 6,7 C 6,7 C 95 % 1005,9 hPa 0,0 l/m 0 min 0 min 0 W/m 9,7 km/h (2 Bft) 95,74 %
15.03.2019 22:10 8,1 C 6,7 C 6,7 C 95 % 1005,8 hPa 0,0 l/m 0 min 0 min 0 W/m 3,2 km/h (1 Bft) 95,74 %
15.03.2019 22:12 8,1 C 6,7 C 6,7 C 95 % 1005,8 hPa 0,0 l/m 0 min 0 min 0 W/m 3,2 km/h (1 Bft) 95,65 %
15.03.2019 22:14 8,1 C 6,7 C 6,7 C 95 % 1005,9 hPa 0,0 l/m 0 min 0 min 0 W/m 6,4 km/h (2 Bft) 95,74 %
15.03.2019 22:16 8,1 C 6,7 C 6,7 C 95 % 1005,9 hPa 0,0 l/m 0 min 0 min 0 W/m 6,4 km/h (2 Bft) 93,62 %
15.03.2019 22:18 8,1 C 6,7 C 6,7 C 95 % 1005,9 hPa 0,0 l/m 0 min 0 min 0 W/m 9,7 km/h (2 Bft) 95,74 %
15.03.2019 22:20 8,1 C 6,7 C 6,7 C 95 % 1006,0 hPa 0,0 l/m 0 min 0 min 0 W/m 3,2 km/h (1 Bft) 95,74 %
15.03.2019 22:22 8,1 C 6,7 C 6,7 C 95 % 1006,1 hPa 0,0 l/m 0 min 0 min 0 W/m 6,4 km/h (2 Bft) 95,74 %
15.03.2019 22:24 8,1 C 7,2 C 6,7 C 95 % 1006,0 hPa 0,0 l/m 0 min 0 min 0 W/m 6,4 km/h (2 Bft) 95,65 %
15.03.2019 22:26 8,1 C 7,2 C 6,7 C 95 % 1005,9 hPa 0,0 l/m 0 min 0 min 0 W/m 3,2 km/h (1 Bft) 97,87 %
15.03.2019 22:28 8,1 C 7,2 C 6,7 C 95 % 1006,0 hPa 0,0 l/m 0 min 0 min 0 W/m 3,2 km/h (1 Bft) 95,74 %
15.03.2019 22:30 8,1 C 7,2 C 6,7 C 95 % 1006,1 hPa 0,0 l/m 0 min 0 min 0 W/m 3,2 km/h (1 Bft) 97,87 %
15.03.2019 22:32 8,1 C 7,2 C 6,7 C 95 % 1006,1 hPa 0,0 l/m 0 min 0 min 0 W/m 3,2 km/h (1 Bft) 97,87 %
15.03.2019 22:34 8,1 C 7,2 C 6,7 C 95 % 1006,1 hPa 0,0 l/m 0 min 0 min 0 W/m 3,2 km/h (1 Bft) 97,87 %
15.03.2019 22:36 8,1 C 7,2 C 6,7 C 95 % 1006,2 hPa 0,0 l/m 0 min 0 min 0 W/m 3,2 km/h (1 Bft) 98,28 %
15.03.2019 22:38 8,1 C 7,2 C 6,7 C 95 % 1006,2 hPa 0,0 l/m 0 min 2 min 0 W/m 3,2 km/h (1 Bft) 97,14 %
15.03.2019 22:40 8,1 C 7,2 C 6,7 C 95 % 1006,2 hPa 0,0 l/m 0 min 2 min 0 W/m 3,2 km/h (1 Bft) 100,00 %
15.03.2019 22:42 8,1 C 7,2 C 6,7 C 95 % 1006,2 hPa 0,0 l/m 0 min 0 min 0 W/m 6,4 km/h (2 Bft) 100,00 %
15.03.2019 22:44 8,1 C 7,2 C 6,7 C 95 % 1006,2 hPa 0,0 l/m 0 min 0 min 0 W/m 3,2 km/h (1 Bft) 100,00 %
15.03.2019 22:46 8,1 C 7,2 C 6,7 C 95 % 1006,2 hPa 0,0 l/m 0 min 0 min 0 W/m 6,4 km/h (2 Bft) 100,00 %
15.03.2019 22:48 8,1 C 7,2 C 6,7 C 95 % 1006,2 hPa 0,0 l/m 0 min 0 min 0 W/m 3,2 km/h (1 Bft) 97,87 %
15.03.2019 22:50 8,1 C 7,2 C 6,7 C 95 % 1006,2 hPa 0,0 l/m 0 min 0 min 0 W/m 6,4 km/h (2 Bft) 97,87 %
15.03.2019 22:52 8,1 C 7,2 C 6,7 C 95 % 1006,2 hPa 0,0 l/m 0 min 0 min 0 W/m 0,0 km/h (0 Bft) 100,00 %
15.03.2019 22:54 8,1 C 7,2 C 6,7 C 95 % 1006,2 hPa 0,0 l/m 0 min 0 min 0 W/m 3,2 km/h (1 Bft) 100,00 %
15.03.2019 22:56 8,1 C 7,2 C 6,7 C 95 % 1006,2 hPa 0,0 l/m 0 min 0 min 0 W/m 6,4 km/h (2 Bft) 100,00 %
15.03.2019 22:58 8,1 C 7,2 C 6,7 C 95 % 1006,3 hPa 0,0 l/m 0 min 2 min 0 W/m 6,4 km/h (2 Bft) 100,00 %
15.03.2019 23:00 8,1 C 7,2 C 6,7 C 95 % 1006,4 hPa 0,0 l/m 0 min 2 min 0 W/m 3,2 km/h (1 Bft) 100,00 %
15.03.2019 23:02 8,2 C 7,2 C 6,7 C 95 % 1006,4 hPa 0,0 l/m 0 min 2 min 0 W/m 3,2 km/h (1 Bft) 100,00 %
15.03.2019 23:04 8,2 C 7,2 C 6,7 C 95 % 1006,4 hPa 0,0 l/m 0 min 2 min 0 W/m 3,2 km/h (1 Bft) 100,00 %
15.03.2019 23:06 8,2 C 7,2 C 6,7 C 95 % 1006,5 hPa 0,0 l/m 0 min 0 min 0 W/m 0,0 km/h (0 Bft) 100,00 %
15.03.2019 23:08 8,2 C 7,2 C 6,7 C 95 % 1006,5 hPa 0,0 l/m 0 min 0 min 0 W/m 0,0 km/h (0 Bft) 100,00 %
15.03.2019 23:10 8,1 C 7,2 C 6,7 C 95 % 1006,6 hPa 0,0 l/m 0 min 0 min 0 W/m 0,0 km/h (0 Bft) 100,00 %
15.03.2019 23:12 8,2 C 7,2 C 6,7 C 95 % 1006,5 hPa 0,0 l/m 0 min 0 min 0 W/m 0,0 km/h (0 Bft) 100,00 %
15.03.2019 23:14 8,1 C 7,2 C 6,7 C 95 % 1006,6 hPa 0,0 l/m 0 min 0 min 0 W/m 0,0 km/h (0 Bft) 100,00 %
15.03.2019 23:16 8,1 C 7,2 C 6,7 C 95 % 1006,6 hPa 0,0 l/m 0 min 0 min 0 W/m 0,0 km/h (0 Bft) 100,00 %
15.03.2019 23:18 8,1 C 7,2 C 6,7 C 95 % 1006,7 hPa 0,0 l/m 0 min 0 min 0 W/m 3,2 km/h (1 Bft) 97,87 %
15.03.2019 23:20 8,1 C 7,2 C 6,7 C 95 % 1006,7 hPa 0,0 l/m 0 min 0 min 0 W/m 3,2 km/h (1 Bft) 97,87 %
15.03.2019 23:22 8,1 C 7,2 C 6,7 C 95 % 1006,6 hPa 0,0 l/m 0 min 0 min 0 W/m 3,2 km/h (1 Bft) 95,65 %
15.03.2019 23:24 8,1 C 7,2 C 6,7 C 95 % 1006,6 hPa 0,0 l/m 0 min 0 min 0 W/m 3,2 km/h (1 Bft) 97,87 %
15.03.2019 23:26 8,1 C 7,2 C 6,7 C 95 % 1006,6 hPa 0,0 l/m 0 min 0 min 0 W/m 3,2 km/h (1 Bft) 97,87 %
15.03.2019 23:28 8,1 C 7,2 C 6,7 C 95 % 1006,6 hPa 0,0 l/m 0 min 2 min 0 W/m 3,2 km/h (1 Bft) 97,87 %
15.03.2019 23:30 8,1 C 7,2 C 6,7 C 95 % 1006,6 hPa 0,0 l/m 0 min 0 min 0 W/m 3,2 km/h (1 Bft) 97,87 %
15.03.2019 23:32 8,1 C 7,8 C 6,7 C 95 % 1006,6 hPa 0,0 l/m 0 min 0 min 0 W/m 3,2 km/h (1 Bft) 97,83 %
15.03.2019 23:34 8,1 C 7,8 C 6,7 C 95 % 1006,7 hPa 0,0 l/m 0 min 0 min 0 W/m 0,0 km/h (0 Bft) 91,49 %
15.03.2019 23:36 8,1 C 7,8 C 6,7 C 95 % 1006,7 hPa 0,0 l/m 0 min 0 min 0 W/m 0,0 km/h (0 Bft) 97,87 %
15.03.2019 23:38 8,1 C 7,8 C 6,7 C 95 % 1006,6 hPa 0,0 l/m 0 min 0 min 0 W/m 0,0 km/h (0 Bft) 97,87 %
15.03.2019 23:40 8,1 C 7,8 C 6,7 C 95 % 1006,4 hPa 0,0 l/m 0 min 0 min 0 W/m 0,0 km/h (0 Bft) 97,87 %
15.03.2019 23:42 8,1 C 7,8 C 6,7 C 95 % 1006,6 hPa 0,0 l/m 0 min 2 min 0 W/m 3,2 km/h (1 Bft) 97,87 %
15.03.2019 23:44 8,1 C 7,8 C 6,7 C 95 % 1006,8 hPa 0,0 l/m 0 min 2 min 0 W/m 3,2 km/h (1 Bft) 97,83 %
15.03.2019 23:46 8,1 C 7,8 C 6,7 C 95 % 1006,7 hPa 0,0 l/m 0 min 0 min 0 W/m 3,2 km/h (1 Bft) 95,74 %
15.03.2019 23:48 8,1 C 7,8 C 6,7 C 95 % 1006,7 hPa 0,0 l/m 0 min 0 min 0 W/m 3,2 km/h (1 Bft) 97,87 %
15.03.2019 23:50 8,2 C 7,8 C 6,7 C 95 % 1006,7 hPa 0,0 l/m 0 min 0 min 0 W/m 3,2 km/h (1 Bft) 95,74 %
15.03.2019 23:52 8,2 C 7,8 C 6,7 C 95 % 1006,6 hPa 0,0 l/m 0 min 0 min 0 W/m 0,0 km/h (0 Bft) 97,87 %
15.03.2019 23:54 8,2 C 7,8 C 6,7 C 95 % 1006,7 hPa 0,0 l/m 0 min 0 min 0 W/m 3,2 km/h (1 Bft) 97,87 %
15.03.2019 23:56 8,2 C 7,8 C 6,7 C 95 % 1006,8 hPa 0,0 l/m 0 min 0 min 0 W/m 3,2 km/h (1 Bft) 97,83 %
15.03.2019 23:58 8,2 C 7,8 C 6,7 C 95 % 1006,9 hPa 0,0 l/m 0 min 0 min 0 W/m 0,0 km/h (0 Bft) 97,87 %
_ Min-Zeit 00:46 00:20 00:36 00:20 09:38 - - - - 00:02 06:26
Minimum _ 6,7 C 6,1 C 5,0 C 87 % 1000,8 hPa - - - - 0,0 km/h (0 Bft) 89,36 %
_ Max-Zeit 14:12 13:34 13:34 11:16 23:58 07:42 13:30 18:07 13:36 13:16 00:52
Maximum _ 12,8 C 15,0 C 12,2 C 99 % 1006,9 hPa 0,2 l/m 2 min 3 min 534 W/m 57,9 km/h
N (7 Bft)
100,00 %
Durchschnitt _ 9,0 C 8,3 C 7,6 C 93 % 1003,1 hPa #6,4 l/m #24 min. #11:56 h 74 W/m 15,5 km/h (3 Bft) 97,45 %
© 2019 W. Hausmann